                ,  0.485,  0.585,  0.685,  0.785,  0.885,  0.985,  1.085,  1.185,  1.285,  1.385,  1.485,  1.585,  1.685,  1.785,  1.885,  1.985,  2.085,  2.185,  2.285,  2.385,  2.485,  2.585,  2.685,  2.785,  2.885,  2.985,  3.085,  3.185,  3.285,  3.385,  3.485,  3.585,  3.685,  3.785,  3.885,  3.985,  4.085,  4.185,  4.285,  4.385,  4.485,  4.585,  4.685,  4.785,  4.885,  4.985,  5.085,  5.185,  5.285,  5.385,  5.485,  5.585,  5.685,  5.785,  5.885,  5.985,  6.085,  6.185,  6.285,  6.385,  6.485,  6.585,  6.685,  6.785,  6.885,  6.985,  7.085,  7.185,  7.285,  7.385,  7.485,  7.585,  7.685,  7.785,  7.885,  7.985,  8.085,  8.185,  8.285,  8.385
2011/09/03 00:00,   -5.5,   -4.4,   -4.9,   -4.8,   -4.5,   -4.9,   -5.3,   -5.2,   -4.8,   -5.2,   -5.5,   -5.4,   -5.3,   -5.4,   -5.0,   -4.8,   -5.2,   -5.2,   -5.0,   -4.9,   -4.7,   -4.8,   -4.8,   -4.7,   -4.7,   -4.7,   -4.7,   -4.6,   -4.4,   -4.5,   -4.5,   -4.5,   -4.8,   -5.1,   -5.3,   -5.4,   -5.2,   -5.4,   -5.6,   -5.3,   -4.7,   -4.3,   -3.5,   -3.2,   -3.1,   -3.2,   -3.0,   -3.1,   -2.9,   -2.9,   -3.0,   -2.9,   -2.8,   -2.7,   -2.6,   -2.5,   -2.5,   -2.3,   -2.3,   -2.2,   -2.2,   -2.3,   -2.1,   -2.1,   -2.1,   -1.9,   -1.5,   -1.3,   -1.1,   -1.3,  999.0,  999.0,  999.0,  999.0,  999.0,  999.0,  999.0,  999.0,  999.0,  999.0
2011/09/03 00:10,   -5.8,   -5.0,   -5.5,   -5.3,   -5.5,   -5.3,   -5.6,   -5.7,   -6.0,   -5.9,   -5.3,   -5.9,   -5.5,   -5.3,   -5.2,   -5.2,   -5.1,   -5.2,   -5.2,   -5.2,   -5.5,   -5.3,   -5.1,   -5.3,   -5.2,   -5.2,   -5.0,   -5.1,   -5.2,   -5.0,   -4.9,   -5.0,   -4.8,   -4.8,   -5.1,   -5.1,   -5.1,   -5.0,   -5.4,   -5.4,  999.0,  999.0,  999.0,   -3.4,   -2.9,   -2.8,   -2.7,   -2.7,   -2.6,   -2.6,   -2.6,   -2.5,   -2.6,   -2.5,   -2.3,   -2.2,   -2.0,   -2.0,   -2.0,   -1.7,   -1.7,   -1.4,   -1.2,   -1.5,   -1.1,  999.0,  999.0,  999.0,  999.0,  999.0,  999.0,  999.0,  999.0,  999.0,  999.0,  999.0,  999.0,  999.0,  999.0,  999.0
2011/09/03 00:20,   -5.9,   -5.9,   -5.8,   -5.7,   -5.6,   -5.8,   -5.0,   -5.6,   -5.7,   -5.8,   -5.6,   -5.6,   -5.4,   -5.4,   -5.4,   -5.3,   -5.4,   -5.4,   -5.2,   -5.4,   -5.1,   -5.2,   -5.3,   -5.3,   -5.5,   -5.3,   -5.2,   -5.5,   -5.6,   -5.3,   -5.3,   -5.2,   -5.2,   -5.0,   -5.1,   -4.9,   -4.8,   -4.9,   -5.1,   -5.3,   -5.3,   -5.1,   -3.6,   -3.0,   -3.1,   -2.8,   -2.9,   -2.8,   -2.8,   -2.7,   -2.6,   -2.6,   -2.6,   -2.5,   -2.5,   -2.4,   -2.2,   -2.1,   -2.1,   -2.2,   -2.0,   -2.0,   -1.9,   -1.9,   -2.0,  999.0,  999.0,  999.0,  999.0,  999.0,  999.0,  999.0,  999.0,  999.0,  999.0,  999.0,  999.0,  999.0,  999.0,  999.0
2011/09/03 00:30,  999.0,  999.0,   -4.6,   -2.6,   -3.2,   -3.3,   -3.6,   -2.5,   -3.1,   -3.7,   -3.1,   -3.0,   -3.7,   -4.1,   -3.7,   -4.4,   -4.3,   -4.9,   -4.6,   -4.0,   -4.3,   -4.1,   -4.4,   -4.6,   -4.2,   -4.6,   -4.6,   -4.4,   -4.4,   -4.3,   -4.3,   -4.3,   -4.2,   -4.6,   -4.3,   -4.3,   -4.4,   -4.0,   -3.9,   -3.8,   -3.9,   -3.7,   -3.5,   -3.0,   -2.8,   -2.2,   -2.1,   -1.9,   -2.0,   -2.0,   -2.0,   -2.0,   -2.1,   -2.1,   -2.2,   -2.1,   -2.1,   -2.1,   -2.0,   -2.0,   -2.0,   -1.9,   -1.9,   -1.8,   -1.8,   -1.6,   -1.6,   -1.6,   -1.6,   -1.4,   -1.4,   -1.3,   -1.4,   -1.3,   -1.3,   -1.3,   -1.2,   -1.1,   -1.0,   -1.0
2011/09/03 00:40,  999.0,   -4.9,   -4.4,   -4.4,   -4.2,   -4.3,   -4.2,   -4.5,   -4.1,   -4.4,   -4.3,   -4.3,   -4.3,   -4.3,   -4.4,   -4.2,   -4.2,   -4.1,   -4.4,   -4.2,   -4.3,   -4.4,   -4.4,   -4.6,   -4.6,   -4.5,   -4.9,   -4.5,   -4.1,   -4.1,   -4.0,   -3.9,   -3.9,   -3.9,   -3.7,   -3.9,   -3.5,   -3.3,   -3.3,   -3.2,   -3.1,   -2.7,   -4.3,   -2.5,   -2.1,   -1.9,   -1.7,   -1.6,   -1.6,   -1.6,   -1.4,   -1.4,   -1.3,   -1.2,   -1.0,   -0.8,   -0.7,   -0.6,   -0.7,   -0.4,   -0.6,   -0.4,   -0.6,   -0.6,   -0.8,   -0.9,   -0.9,   -0.9,   -0.8,   -0.8,   -0.8,   -0.7,   -0.7,   -0.7,   -0.6,   -0.7,   -0.8,   -0.8,   -0.8,   -0.7
2011/09/03 00:50,   -4.5,   -5.6,   -5.7,   -5.7,   -5.5,   -5.5,   -5.4,   -5.2,   -5.3,   -5.3,   -5.1,   -5.2,   -5.0,   -4.9,   -4.7,   -4.8,   -4.5,   -4.4,   -4.4,   -4.5,   -4.5,   -4.5,   -4.6,   -4.5,   -4.5,   -4.7,   -4.4,   -4.4,   -4.1,   -4.3,   -4.1,   -4.2,   -4.0,   -4.0,   -3.8,   -3.9,   -3.8,   -3.9,   -3.7,   -3.6,   -3.8,   -4.1,   -3.8,   -4.0,   -2.4,   -1.8,   -1.6,   -1.5,   -1.5,   -1.5,   -1.4,   -1.5,   -1.5,   -1.3,   -1.5,   -1.3,   -1.1,   -1.3,   -1.1,   -1.2,   -1.1,   -1.0,   -0.9,   -0.9,   -0.8,   -0.9,   -1.0,   -0.9,   -0.9,   -0.9,   -0.8,   -0.9,   -0.8,   -0.8,   -0.8,   -0.7,   -0.6,   -0.6,   -0.5,  999.0
2011/09/03 01:00,   -4.9,   -5.2,   -5.1,   -4.7,   -4.4,   -4.7,   -4.4,   -4.8,   -4.6,   -4.5,   -5.4,   -4.9,   -5.0,   -4.6,   -4.3,   -4.8,   -4.9,   -4.7,   -4.3,   -4.7,   -4.5,   -4.4,   -4.2,   -4.2,   -4.0,   -4.1,   -3.9,   -4.1,   -3.8,   -3.8,   -3.7,   -3.8,   -3.9,   -3.7,   -3.8,   -3.6,   -3.6,   -3.6,   -3.3,   -3.4,   -3.3,   -3.1,   -3.0,   -2.5,   -1.6,   -1.3,   -1.3,   -1.4,   -1.4,   -1.5,   -1.6,   -1.6,   -1.6,   -1.6,   -1.6,   -1.6,   -1.6,   -1.5,   -1.3,   -1.2,   -1.1,   -1.0,   -0.9,   -0.7,   -0.4,   -0.1,   -0.0,  999.0,  999.0,  999.0,  999.0,  999.0,   -0.3,   -0.7,   -0.7,   -0.6,   -0.7,   -0.8,   -0.7,   -0.7
2011/09/03 01:10,   -5.4,   -4.3,   -4.7,   -4.4,   -4.5,   -4.4,   -4.8,   -4.3,   -4.9,   -5.1,   -4.8,   -4.9,   -5.0,   -4.8,   -4.7,   -4.9,   -4.8,   -5.4,   -5.2,   -5.3,   -5.2,   -5.1,   -5.3,   -4.9,   -4.8,   -4.7,   -4.6,   -4.5,   -4.6,   -4.4,   -4.3,   -4.3,   -4.1,   -3.9,   -3.9,   -3.6,   -3.5,   -3.5,   -3.5,   -3.3,   -3.3,   -2.9,   -2.6,   -2.4,   -2.1,   -1.5,   -1.4,   -1.3,   -1.4,   -1.5,   -1.4,   -1.5,   -1.5,   -1.3,   -1.3,   -1.2,   -1.2,   -1.4,   -1.6,   -1.2,   -0.9,   -0.9,   -0.9,   -1.1,  999.0,  999.0,  999.0,  999.0,  999.0,  999.0,  999.0,  999.0,  999.0,   -2.5,   -2.0,   -1.8,   -2.2,   -2.0,   -1.9,   -1.9
2011/09/03 01:20,   -5.2,   -4.8,   -5.4,   -5.3,   -5.4,   -5.8,   -5.5,   -5.9,   -5.9,   -5.7,   -5.5,   -5.5,   -5.5,   -5.6,   -5.5,   -5.6,   -5.8,   -5.6,   -5.3,   -5.4,   -5.1,   -5.2,   -5.2,   -4.6,   -4.8,   -5.1,   -5.1,   -5.0,   -5.1,   -4.6,   -4.2,   -4.4,   -3.8,   -3.8,   -4.1,   -3.9,   -3.4,   -3.5,   -3.5,   -3.3,   -2.9,   -4.3,  999.0,  999.0,   -2.3,   -2.1,   -2.0,   -1.8,   -1.8,   -1.8,   -1.8,   -1.7,   -1.7,   -1.6,   -1.4,   -1.4,   -1.6,   -1.4,   -1.4,   -1.0,  999.0,  999.0,  999.0,  999.0,  999.0,  999.0,  999.0,  999.0,  999.0,  999.0,  999.0,  999.0,  999.0,  999.0,  999.0,  999.0,   -2.5,  999.0,   -2.3,   -2.3
2011/09/03 01:30,   -4.3,   -4.3,   -4.6,   -4.7,   -4.7,   -4.7,   -5.2,   -4.8,   -4.9,   -5.0,   -4.8,   -5.0,   -5.1,   -5.1,   -5.0,   -5.1,   -5.0,   -4.9,   -4.8,   -5.0,   -5.0,   -4.9,   -4.9,   -4.8,   -4.8,   -4.7,   -4.6,   -4.5,   -4.4,   -4.3,   -4.2,   -4.3,   -4.1,   -4.0,   -3.9,   -3.8,   -3.8,   -3.6,   -4.1,   -4.0,   -4.0,   -3.7,   -3.3,   -2.8,   -2.5,   -2.0,   -1.9,   -1.7,   -1.7,   -1.7,   -1.6,   -1.5,   -1.1,   -1.3,  999.0,   -0.7,  999.0,   -0.4,  999.0,  999.0,  999.0,  999.0,  999.0,  999.0,  999.0,  999.0,  999.0,  999.0,  999.0,  999.0,  999.0,  999.0,  999.0,  999.0,  999.0,  999.0,  999.0,  999.0,  999.0,  999.0
2011/09/03 01:40,  999.0,   -4.8,   -3.9,   -3.9,   -3.9,   -4.3,   -4.1,   -4.3,   -3.8,   -4.3,   -4.2,   -4.0,   -4.3,   -4.3,   -4.2,   -4.0,   -4.4,   -4.5,   -4.2,   -4.4,   -4.1,   -4.0,   -4.1,   -3.9,   -4.0,   -2.3,   -2.2,   -2.1,   -2.3,   -1.9,   -1.7,   -1.2,   -1.3,   -1.3,   -1.9,   -1.8,   -1.9,   -2.0,   -1.5,   -1.2,   -2.5,   -2.7,  999.0,   -2.1,   -1.4,   -1.0,   -1.4,   -1.5,   -1.4,   -1.4,   -1.6,   -1.7,  999.0,   -1.4,  999.0,   -0.1,  999.0,  999.0,  999.0,   -0.1,  999.0,  999.0,  999.0,  999.0,  999.0,  999.0,  999.0,  999.0,  999.0,  999.0,  999.0,  999.0,  999.0,  999.0,  999.0,  999.0,  999.0,  999.0,   -2.1,   -2.1
2011/09/03 01:50,   -1.0,   -1.2,   -2.6,   -2.1,   -1.9,   -3.0,   -2.5,   -2.4,   -2.3,   -2.1,   -2.1,   -2.3,   -2.4,   -1.7,   -1.5,   -0.9,   -1.0,   -0.9,   -0.5,   -0.4,   -0.8,   -0.8,   -0.8,   -0.7,   -0.6,   -0.7,   -0.6,   -0.6,   -0.6,   -0.6,   -0.5,   -0.5,   -0.1,   -0.2,   -0.1,   -2.2,   -2.8,   -3.3,   -3.6,   -3.4,   -3.5,   -3.5,   -3.6,   -3.1,   -2.2,   -1.5,   -0.9,   -1.0,   -1.6,   -1.4,   -1.7,   -1.6,   -1.6,   -1.7,   -1.7,   -1.4,   -1.7,  999.0,  999.0,  999.0,  999.0,  999.0,  999.0,  999.0,  999.0,  999.0,   -3.7,   -3.6,   -3.6,   -3.7,   -3.5,   -3.4,   -3.2,   -3.1,   -2.9,   -2.8,   -2.7,   -2.7,   -2.8,   -2.7
2011/09/03 02:00,   -4.5,   -5.0,   -4.6,   -4.2,   -4.5,   -4.5,   -4.0,   -4.2,   -4.6,   -4.5,   -4.2,   -4.0,   -4.0,   -4.0,   -4.1,   -4.1,   -3.8,   -3.9,   -3.9,   -4.6,   -3.6,   -3.9,   -3.0,   -2.6,   -2.6,   -2.7,   -2.6,   -2.7,   -2.3,   -3.5,   -2.2,   -3.4,   -3.2,   -3.5,   -4.0,   -4.3,   -4.5,   -4.8,   -4.7,   -4.6,   -4.7,   -4.1,   -4.1,   -3.6,   -2.6,   -2.1,   -1.7,   -1.8,   -1.8,   -2.0,   -2.2,   -2.3,   -1.9,   -2.1,   -1.6,   -1.5,   -1.7,   -1.6,   -1.3,  999.0,   -3.5,   -3.7,   -3.5,   -3.4,   -3.4,   -3.2,   -2.7,   -2.6,   -2.4,   -2.5,   -2.4,   -2.2,   -2.2,   -2.2,   -2.1,   -2.0,   -1.9,   -1.8,   -1.8,   -1.6
2011/09/03 02:10,   -6.3,   -5.9,   -5.8,   -5.6,   -5.1,   -5.2,   -5.7,   -5.2,   -5.4,   -5.3,   -5.8,   -5.6,   -5.9,   -6.5,   -5.9,   -6.2,   -6.1,   -6.7,   -6.7,   -6.8,   -7.1,   -7.3,   -7.1,   -7.2,   -7.4,   -7.7,   -7.4,   -7.6,   -7.4,   -7.3,   -7.7,   -7.6,   -7.9,   -8.1,   -8.2,   -8.0,   -8.3,   -8.3,   -8.7,   -8.6,   -8.2,   -6.8,   -5.4,   -4.0,   -3.3,   -2.9,   -2.7,   -2.5,   -2.5,   -2.4,   -2.2,   -2.0,   -2.0,   -1.8,   -1.7,   -1.6,   -1.5,   -1.4,   -1.3,   -1.2,   -1.1,   -1.1,  999.0,   -1.0,   -1.2,  999.0,  999.0,  999.0,  999.0,  999.0,  999.0,   -2.5,   -2.6,   -2.8,   -2.7,   -2.6,   -2.6,   -2.7,   -2.6,   -2.5
2011/09/03 02:20,   -6.0,   -5.6,   -5.9,   -6.0,   -5.7,   -6.0,   -6.6,   -6.7,   -6.5,   -6.7,   -6.7,   -6.5,   -6.4,   -6.7,   -7.0,   -6.9,   -7.0,   -6.9,   -7.4,   -7.4,   -7.4,   -7.1,   -7.4,   -7.6,   -7.8,   -8.0,   -8.0,   -8.1,   -8.2,   -8.2,   -8.3,   -8.6,   -8.6,   -8.6,   -8.6,   -8.8,   -8.8,   -8.9,   -8.9,   -8.6,   -8.2,   -6.9,   -4.9,  999.0,   -3.2,   -2.8,   -2.8,   -2.7,   -2.6,   -2.5,   -2.4,   -2.3,   -2.3,   -2.1,   -2.0,   -2.0,   -1.9,   -1.7,   -1.7,   -1.5,   -1.5,   -1.4,   -1.4,   -0.8,  999.0,  999.0,  999.0,  999.0,  999.0,  999.0,  999.0,  999.0,   -2.2,   -2.3,   -2.3,   -2.4,   -2.3,   -2.3,   -2.3,   -2.2
2011/09/03 02:30,   -6.5,   -6.2,  999.0,  999.0,  999.0,   -5.7,   -6.1,   -6.3,   -6.3,   -6.5,   -6.6,   -6.7,   -6.7,   -6.9,   -6.7,   -6.9,   -7.2,   -6.8,   -7.3,   -6.8,   -7.2,   -6.9,   -7.8,   -7.4,   -7.8,   -7.9,   -7.9,   -7.9,   -8.0,   -8.0,   -8.5,   -8.6,   -8.6,   -8.8,   -9.1,   -9.1,   -9.0,   -8.9,   -9.0,   -8.6,   -7.2,   -5.5,  999.0,   -3.4,   -3.0,   -2.7,   -2.8,   -2.6,   -2.5,   -2.4,   -2.4,   -2.4,   -2.2,   -2.0,   -2.0,   -1.9,   -1.8,   -1.8,   -1.7,   -1.6,   -1.5,   -1.4,   -1.4,   -1.5,   -1.4,   -1.4,  999.0,  999.0,  999.0,  999.0,  999.0,  999.0,  999.0,  999.0,   -2.3,   -2.2,   -1.9,   -1.8,   -1.9,   -1.9
2011/09/03 02:40,   -5.8,   -5.6,   -5.6,   -5.4,   -5.5,   -5.5,   -5.4,   -5.7,   -5.7,   -5.7,   -5.8,   -5.2,   -6.0,   -6.2,   -6.0,   -5.7,   -6.2,   -6.2,   -6.2,   -6.4,   -6.9,   -7.1,   -7.2,   -7.0,   -7.2,   -7.7,   -7.7,   -7.8,   -7.8,   -8.1,   -8.1,   -7.9,   -8.1,   -8.3,   -8.4,   -8.6,   -8.1,   -8.3,   -7.4,   -8.0,   -7.1,   -5.7,   -4.6,   -3.8,   -3.3,   -3.2,   -3.1,   -3.0,   -2.9,   -2.7,   -2.6,   -2.6,   -2.3,   -2.2,   -2.2,   -2.1,   -2.0,   -1.9,   -1.8,   -1.7,   -1.8,   -1.7,   -1.5,   -1.5,   -1.4,   -1.2,   -1.1,   -1.2,  999.0,  999.0,  999.0,   -0.9,  999.0,  999.0,  999.0,  999.0,  999.0,  999.0,  999.0,   -1.6
2011/09/03 02:50,   -5.7,   -5.7,   -6.3,   -5.6,   -5.6,   -5.7,   -5.8,   -5.5,   -5.8,   -5.4,   -5.9,   -5.9,   -5.7,   -6.0,   -6.2,   -5.7,   -6.2,   -5.7,   -6.9,   -7.1,   -7.1,   -7.3,   -8.1,   -7.9,   -8.2,   -8.1,   -8.7,   -8.2,   -8.2,   -8.5,   -8.4,   -8.6,   -8.4,   -8.5,   -8.4,   -8.5,   -8.4,   -8.5,   -8.6,   -8.4,   -8.1,   -6.9,   -5.6,   -4.6,   -3.4,   -2.9,   -2.8,   -2.5,   -2.5,   -2.4,   -2.3,   -2.2,   -2.2,   -2.1,   -2.0,   -1.9,   -1.9,   -1.9,   -1.7,   -1.6,   -1.5,   -1.5,   -1.3,   -1.2,   -1.4,   -1.4,   -1.6,  999.0,  999.0,  999.0,  999.0,  999.0,  999.0,  999.0,  999.0,  999.0,  999.0,  999.0,  999.0,  999.0
2011/09/03 03:00,   -5.6,   -5.7,   -5.8,   -5.2,   -5.6,   -5.7,   -5.6,   -5.6,   -5.7,   -5.7,   -6.1,   -6.0,   -5.7,   -6.1,   -6.0,   -6.4,   -6.8,   -6.8,   -6.8,   -6.8,   -7.0,   -6.8,   -6.9,   -6.7,   -7.3,   -6.9,   -6.8,   -6.5,   -6.5,   -6.0,   -7.2,   -7.2,   -7.3,   -7.1,   -6.8,   -6.5,   -7.0,  999.0,  999.0,   -7.0,   -7.2,   -6.3,   -4.6,   -3.9,   -3.2,   -3.0,   -3.3,   -2.7,   -2.6,   -2.4,   -2.3,   -2.2,   -2.1,   -2.0,   -1.8,   -1.9,   -1.8,   -1.8,   -1.7,   -1.6,   -1.5,   -1.7,  999.0,  999.0,  999.0,  999.0,  999.0,  999.0,  999.0,  999.0,  999.0,  999.0,  999.0,  999.0,  999.0,  999.0,  999.0,  999.0,  999.0,  999.0
2011/09/03 03:10,   -5.1,   -5.3,   -5.3,   -5.0,   -5.0,   -5.2,   -5.4,   -5.1,   -5.4,   -5.4,   -5.7,   -5.6,   -5.7,   -5.5,   -6.3,   -5.4,   -5.6,   -6.1,   -6.6,   -6.3,   -6.6,   -6.2,   -6.5,   -6.2,   -6.2,   -6.4,   -6.3,   -6.3,   -6.4,   -5.9,   -6.3,   -6.5,   -6.4,   -7.0,   -6.8,   -7.0,   -7.1,   -6.7,   -6.3,   -6.6,   -7.5,   -6.8,   -6.1,   -5.0,   -4.2,   -3.5,   -3.0,   -2.8,   -2.5,   -2.6,   -2.4,   -2.4,   -2.3,   -2.1,   -1.9,   -1.9,   -1.8,   -1.5,   -1.5,   -1.4,   -1.3,   -1.3,   -1.2,   -1.1,   -1.1,  999.0,  999.0,  999.0,  999.0,  999.0,  999.0,  999.0,  999.0,  999.0,  999.0,  999.0,  999.0,  999.0,  999.0,  999.0
2011/09/03 03:20,   -5.3,   -5.1,   -5.7,   -4.9,   -5.2,   -5.4,   -5.5,   -5.7,   -5.8,   -5.7,   -5.9,   -5.8,   -6.1,   -5.5,   -5.4,   -5.7,   -5.6,   -5.8,   -5.9,   -6.0,   -6.1,   -6.1,   -5.9,   -6.0,   -5.6,   -5.8,   -5.4,   -5.8,   -5.6,   -5.6,   -6.5,   -6.9,   -6.3,   -5.8,   -5.8,   -6.7,   -5.9,   -6.3,   -6.0,   -5.9,   -5.8,   -5.7,   -5.5,   -5.2,   -4.3,   -3.5,   -2.7,   -2.3,   -2.1,   -2.0,   -2.0,   -1.9,   -1.9,   -1.7,   -1.5,   -1.5,   -1.3,   -1.2,   -1.1,   -1.0,   -1.1,   -1.0,   -1.0,   -0.8,   -0.7,   -0.7,  999.0,  999.0,  999.0,  999.0,  999.0,  999.0,  999.0,   -1.1,   -1.1,   -1.1,   -1.2,   -1.0,   -1.3,  999.0
2011/09/03 03:30,   -5.9,   -5.7,   -5.8,   -5.8,   -5.5,   -6.0,   -6.0,   -5.9,   -6.3,   -6.2,   -6.3,   -6.5,   -6.3,   -6.1,   -6.5,   -6.7,   -6.6,   -6.9,   -6.9,   -6.7,   -6.7,   -6.7,   -6.8,   -7.0,   -6.7,   -6.8,   -6.8,   -6.6,   -6.9,   -7.1,   -7.2,   -7.5,   -7.9,   -7.5,   -7.5,   -7.7,   -7.7,   -7.9,   -7.8,   -7.8,   -7.3,   -6.6,   -5.6,   -4.5,   -3.7,   -2.7,   -2.4,   -2.3,   -2.2,   -2.1,   -2.0,   -1.9,   -1.8,   -1.7,   -1.6,   -1.5,   -1.3,   -1.2,   -1.1,   -0.8,   -0.8,   -0.6,   -0.5,  999.0,  999.0,  999.0,  999.0,  999.0,  999.0,   -1.2,   -0.9,   -1.1,   -1.1,   -1.1,   -1.2,   -1.2,   -1.3,   -1.2,   -1.1,   -1.0
2011/09/03 03:40,   -6.3,   -6.2,   -6.3,   -6.4,   -6.1,   -5.9,   -5.7,   -5.9,   -5.9,   -5.8,   -5.6,   -5.8,   -5.9,   -6.2,   -6.0,   -5.9,   -5.8,   -6.0,   -5.4,   -5.7,   -5.9,   -5.9,   -6.0,   -5.8,   -5.8,   -6.0,   -6.1,   -5.9,   -6.0,   -6.2,   -6.1,   -5.9,   -6.0,   -6.2,   -6.3,   -6.3,   -6.0,   -6.1,   -6.2,   -7.4,   -7.2,   -7.1,   -6.0,   -4.1,   -3.3,   -2.3,   -2.1,   -2.0,   -1.9,   -1.8,   -1.7,   -1.6,   -1.4,   -1.3,   -1.1,   -0.9,   -0.5,   -0.3,  999.0,  999.0,  999.0,  999.0,  999.0,  999.0,  999.0,  999.0,  999.0,  999.0,  999.0,  999.0,  999.0,   -0.9,   -1.0,   -1.1,   -1.2,   -1.3,   -1.3,   -1.3,   -1.3,   -1.3
2011/09/03 03:50,   -6.1,   -5.9,   -5.8,   -5.3,   -5.5,   -5.5,   -5.2,   -5.5,   -5.5,   -5.2,   -5.2,   -4.9,   -5.0,   -5.0,   -4.7,   -4.7,   -4.8,   -5.1,   -5.0,   -5.3,   -5.2,   -5.1,   -5.2,   -5.2,   -5.1,   -5.1,   -5.1,   -4.9,   -5.0,   -4.9,   -5.0,   -4.8,   -4.7,   -4.9,   -4.7,   -4.5,   -4.6,   -4.8,   -4.8,   -4.6,   -4.2,   -4.6,   -4.2,   -3.1,   -3.1,   -2.5,   -2.2,   -2.5,   -2.1,   -2.0,   -1.9,   -1.5,   -1.4,   -1.2,   -1.0,   -1.0,   -1.0,   -0.9,  999.0,   -0.4,  999.0,  999.0,  999.0,  999.0,  999.0,  999.0,  999.0,  999.0,  999.0,  999.0,  999.0,  999.0,   -1.5,   -1.5,   -1.6,   -1.8,   -1.8,   -1.5,   -2.2,   -2.1
2011/09/03 04:00,   -5.1,   -5.9,   -5.9,   -5.5,   -5.5,   -5.5,   -5.5,   -4.5,   -5.3,   -5.1,   -5.0,   -4.8,   -4.7,   -4.4,   -4.1,   -4.4,   -4.1,   -4.6,   -4.1,   -4.2,   -4.4,   -3.6,   -3.6,   -3.1,   -2.7,   -3.2,   -3.2,   -3.2,   -3.1,   -4.3,   -3.7,   -3.6,   -3.5,   -3.8,   -3.2,   -4.1,   -4.5,   -4.4,   -4.6,   -4.7,   -4.3,   -4.3,   -4.2,   -2.8,   -2.8,   -2.3,   -2.1,   -1.7,   -1.6,   -1.6,   -1.4,   -1.3,   -1.4,   -1.0,   -1.1,   -0.8,   -0.6,   -0.6,   -0.6,   -0.7,  999.0,  999.0,  999.0,  999.0,  999.0,  999.0,  999.0,  999.0,  999.0,  999.0,   -1.6,   -1.5,   -1.4,   -1.4,   -1.3,   -1.3,   -1.2,   -1.1,   -1.1,   -1.0
2011/09/03 04:10,   -4.2,   -4.3,   -4.5,   -4.4,   -4.5,   -4.7,   -4.6,   -4.5,   -4.4,   -4.0,   -3.7,   -4.4,   -4.2,   -4.1,   -3.7,   -3.5,   -3.9,   -3.4,   -3.5,   -2.4,   -2.8,  999.0,   -0.1,   -0.6,   -0.1,   -0.0,   -0.0,   -0.1,   -0.1,   -0.0,   -0.0,   -0.0,   -0.1,   -0.2,   -0.5,   -0.4,   -0.4,   -0.6,   -0.5,   -0.5,   -0.6,   -0.6,   -0.4,   -0.3,   -0.3,   -0.2,   -0.1,   -0.3,   -0.6,   -0.8,   -1.0,   -0.7,   -0.9,   -0.8,   -1.0,   -0.9,   -0.6,    0.0,  999.0,   -0.1,  999.0,  999.0,  999.0,  999.0,  999.0,  999.0,  999.0,  999.0,  999.0,  999.0,  999.0,  999.0,  999.0,  999.0,  999.0,  999.0,   -0.7,   -0.7,   -0.6,   -0.7
2011/09/03 04:20,   -0.0,    0.0,   -0.8,   -0.1,   -0.3,   -0.6,   -0.5,   -0.9,   -0.2,   -0.5,   -0.5,   -0.9,   -1.2,   -0.7,   -0.8,   -0.3,   -0.3,   -0.2,   -0.2,   -0.0,   -0.0,   -0.0,   -0.0,   -0.0,    0.0,   -0.0,    0.0,    0.0,   -0.0,   -0.0,   -0.0,   -0.0,   -0.1,   -0.2,   -0.5,   -0.7,  999.0,  999.0,   -0.3,   -0.4,   -0.7,   -1.2,   -0.7,   -0.6,   -0.3,   -0.0,   -0.0,    0.1,   -0.0,    0.0,  999.0,  999.0,  999.0,  999.0,  999.0,    0.1,  999.0,   -0.0,   -0.0,    0.0,  999.0,  999.0,  999.0,  999.0,  999.0,  999.0,  999.0,  999.0,  999.0,  999.0,  999.0,  999.0,  999.0,  999.0,  999.0,  999.0,  999.0,  999.0,  999.0,   -0.3
2011/09/03 04:30,   -0.0,   -0.0,   -0.0,   -0.1,   -0.3,   -0.4,   -0.7,   -0.2,   -0.4,   -0.7,   -0.4,   -0.4,   -0.4,   -0.4,   -0.5,   -0.3,   -0.3,   -0.3,   -0.3,   -0.0,   -0.0,   -0.0,   -0.0,   -0.0,   -0.0,   -0.0,    0.0,   -0.0,   -0.0,   -0.0,    0.0,    0.0,   -0.0,   -0.0,   -0.2,   -0.4,   -0.6,   -0.3,   -0.1,   -0.0,  999.0,    0.0,   -0.0,   -0.0,   -0.0,   -0.0,   -0.0,   -0.0,   -0.1,    0.0,  999.0,  999.0,  999.0,  999.0,  999.0,   -0.0,   -0.0,   -0.0,   -0.0,   -0.0,  999.0,  999.0,  999.0,  999.0,  999.0,  999.0,  999.0,  999.0,  999.0,  999.0,  999.0,  999.0,  999.0,  999.0,  999.0,  999.0,  999.0,  999.0,  999.0,  999.0
2011/09/03 04:40,   -0.0,    0.0,   -0.9,   -0.2,   -1.3,   -2.3,   -2.1,   -2.4,   -2.2,   -2.0,   -1.0,   -2.0,   -1.6,   -1.3,   -0.8,   -0.9,   -0.9,   -0.9,   -0.8,   -0.6,   -0.6,   -0.0,    0.0,   -0.1,   -0.0,   -0.0,   -0.0,   -0.0,   -0.0,   -0.0,    0.0,   -0.0,   -0.0,   -0.5,   -0.6,   -0.6,   -0.4,   -0.7,   -0.2,   -0.1,   -0.0,  999.0,   -0.0,    0.0,   -0.0,   -0.0,    0.0,   -0.1,   -0.0,    0.0,  999.0,  999.0,  999.0,    0.1,  999.0,    0.0,  999.0,    0.0,   -0.0,    0.0,  999.0,  999.0,  999.0,  999.0,  999.0,  999.0,  999.0,  999.0,   -1.2,   -0.9,   -0.9,   -0.8,   -0.7,   -0.6,   -0.5,   -0.3,   -0.2,   -0.1,    0.0,    0.0
2011/09/03 04:50,  999.0,    0.0,   -2.3,   -0.0,   -2.7,   -1.8,   -2.1,   -1.7,   -1.1,   -2.1,   -1.6,   -1.9,   -1.7,   -1.7,   -2.2,   -1.5,   -1.2,   -1.5,   -1.3,   -1.3,   -0.0,   -0.0,    0.0,   -0.0,   -0.0,    0.0,    0.0,    0.0,    0.0,    0.0,    0.0,   -0.0,   -0.2,   -0.6,   -0.8,   -1.1,   -0.6,   -0.5,   -0.3,   -0.3,   -0.6,   -0.3,    0.0,   -0.0,   -0.1,    0.0,    0.0,    0.1,    0.1,  999.0,  999.0,  999.0,  999.0,  999.0,  999.0,  999.0,  999.0,  999.0,  999.0,  999.0,  999.0,  999.0,  999.0,  999.0,   -2.3,   -2.4,   -1.8,   -1.7,   -1.8,   -1.7,   -1.5,   -1.6,   -1.5,   -1.5,   -1.3,   -1.2,   -0.9,   -0.8,   -0.7,   -0.6
2011/09/03 05:00,   -0.0,    0.0,    0.0,    0.1,    0.3,    0.3,    0.1,    0.3,    0.3,    0.3,    0.2,    0.2,   -0.1,    0.0,    0.2,   -0.0,   -0.0,   -0.0,   -0.0,   -0.1,   -0.0,   -0.0,    0.0,    0.0,   -0.0,    0.0,    0.0,   -0.0,    0.0,    0.0,    0.0,    0.0,    0.0,   -0.0,   -0.0,    0.0,   -0.0,    0.0,    0.0,    0.1,    0.1,  999.0,  999.0,   -0.0,    0.0,   -0.0,   -0.0,   -0.0,   -0.1,    0.0,  999.0,  999.0,  999.0,  999.0,  999.0,  999.0,  999.0,  999.0,  999.0,  999.0,   -1.5,   -1.4,   -1.3,   -1.3,   -1.4,   -1.3,   -1.4,   -1.4,   -1.4,   -1.3,   -1.3,   -1.3,   -1.2,   -1.2,   -1.2,   -0.9,   -1.0,   -0.8,   -0.8,   -0.4
2011/09/03 05:10,   -0.0,    0.0,   -0.0,    0.1,    0.1,    0.3,    0.2,    0.3,    0.3,    0.3,    0.4,    0.3,    0.4,    0.2,    0.1,    0.2,    0.1,    0.1,    0.1,    0.0,    0.0,   -0.0,   -0.0,   -0.0,   -0.0,    0.0,    0.0,    0.0,    0.0,    0.0,    0.0,    0.0,    0.0,    0.1,    0.0,   -0.0,    0.1,   -0.0,    0.1,    0.0,    0.0,  999.0,   -0.0,   -0.0,   -0.0,    0.0,   -0.0,    0.1,  999.0,  999.0,  999.0,   -2.8,   -2.6,   -2.5,   -2.6,   -2.5,   -2.2,   -2.1,   -2.0,   -2.1,   -2.0,   -1.7,   -1.6,   -1.6,   -1.5,   -1.5,   -1.4,   -1.4,   -1.2,   -1.1,   -1.1,   -1.0,   -0.9,   -0.8,   -0.6,   -0.4,   -0.2,   -0.1,    0.0,    0.0
2011/09/03 05:20,   -0.0,   -0.0,    0.0,    0.0,    0.2,    0.5,    0.5,    0.4,    0.7,    0.4,    0.1,    0.2,    0.3,    0.4,    0.4,    0.2,    0.1,    0.3,    0.3,    0.1,    0.1,    0.1,    0.0,    0.0,    0.1,    0.0,    0.0,    0.0,    0.1,    0.0,    0.0,    0.0,    0.0,    0.0,   -0.0,    0.0,    0.0,   -0.0,   -0.0,   -0.0,   -0.1,  999.0,  999.0,   -0.1,   -0.1,   -0.0,   -0.0,  999.0,  999.0,  999.0,   -3.2,   -3.2,   -3.2,   -3.1,   -3.0,   -2.9,   -2.8,   -2.7,   -2.5,   -2.5,   -2.4,   -2.3,   -2.2,   -2.1,   -2.0,   -1.9,   -1.8,   -1.6,   -1.5,   -1.4,   -1.4,   -1.3,   -1.2,   -1.2,   -1.0,   -0.9,   -0.8,   -0.7,   -0.7,   -0.7
2011/09/03 05:30,    0.0,    0.0,   -0.0,    0.0,    0.2,    0.3,    0.2,    0.2,    0.4,    0.2,    0.0,   -0.1,   -0.1,    0.1,    0.2,   -0.3,   -0.1,   -0.3,   -0.3,   -0.1,   -0.1,   -0.1,   -0.0,   -0.2,   -0.1,   -0.0,    0.0,   -0.0,    0.0,    0.0,    0.0,   -0.0,   -0.0,    0.0,    0.0,   -0.0,    0.1,   -0.2,   -0.0,   -0.1,    0.0,   -0.3,   -0.4,   -0.1,   -0.1,   -0.6,   -0.4,   -0.4,  999.0,   -2.3,   -2.6,   -2.8,   -3.1,   -3.2,   -3.7,   -3.6,   -3.5,   -3.4,   -3.4,   -3.3,   -3.2,   -3.1,   -3.0,   -2.8,   -2.6,   -2.5,   -2.3,   -2.2,   -2.0,   -1.8,   -1.7,   -1.6,   -1.5,   -1.4,   -1.3,   -1.1,   -1.0,   -0.9,   -0.8,   -0.6
2011/09/03 05:40,    0.0,    0.0,   -1.5,   -0.7,   -1.0,   -1.3,   -1.4,   -1.5,   -0.7,   -0.2,   -0.2,   -0.4,   -0.1,   -0.2,   -0.1,    0.2,   -0.2,   -0.1,   -0.2,   -0.1,   -0.1,   -0.1,   -0.1,   -0.1,   -0.1,   -0.0,   -0.1,   -0.0,   -0.0,   -0.0,    0.0,   -0.0,   -0.0,   -0.1,   -0.3,   -0.6,   -0.9,   -0.9,   -0.8,   -0.2,   -0.9,   -1.7,   -1.3,  999.0,  999.0,   -0.1,   -0.1,   -0.0,  999.0,  999.0,  999.0,  999.0,  999.0,   -4.1,   -4.4,   -4.3,   -4.1,   -4.0,   -3.8,   -3.7,   -3.5,   -3.4,   -3.2,   -3.1,   -2.9,   -2.7,   -2.4,   -2.3,   -2.1,   -2.0,   -1.8,   -1.6,   -1.4,   -1.2,   -1.1,   -0.9,   -0.8,   -0.6,   -0.5,   -0.4
2011/09/03 05:50,  999.0,   -0.0,   -0.1,   -0.3,  999.0,   -1.0,   -0.4,   -0.7,   -1.0,   -0.6,   -0.7,   -0.7,   -1.1,   -1.0,   -0.8,   -0.4,   -0.7,   -0.7,   -0.3,   -0.1,   -0.1,   -0.1,   -0.0,   -0.1,    0.0,   -0.0,    0.0,    0.0,   -0.0,    0.0,   -0.0,    0.0,   -0.0,   -0.0,   -0.3,   -0.7,   -0.5,   -0.5,   -0.6,   -0.5,   -0.0,  999.0,   -0.1,   -0.0,   -0.0,    0.0,   -0.0,    0.1,   -0.2,  999.0,  999.0,  999.0,   -1.8,  999.0,  999.0,  999.0,  999.0,   -3.1,   -2.9,   -3.0,   -2.8,   -2.6,   -2.5,   -2.4,   -2.3,   -2.2,   -2.2,   -2.1,   -2.1,   -2.0,   -1.9,   -1.7,   -1.6,   -1.5,   -1.4,   -1.4,   -1.3,   -1.1,   -1.0,   -0.8
2011/09/03 06:00,   -0.1,    0.0,    0.1,   -0.1,    0.1,    0.2,  999.0,   -0.3,   -0.2,   -0.2,   -0.4,   -0.0,   -0.2,    0.1,   -0.0,   -0.1,   -0.1,   -0.2,    0.1,   -0.2,   -0.2,   -0.1,   -0.1,   -0.1,   -0.0,   -0.0,   -0.0,   -0.0,    0.0,    0.0,    0.0,   -0.0,   -0.0,   -0.1,   -0.1,   -0.6,   -0.1,   -0.0,   -0.1,   -0.1,   -0.1,  999.0,   -0.1,   -0.0,   -0.1,   -0.0,    0.0,    0.1,  999.0,  999.0,  999.0,  999.0,  999.0,  999.0,  999.0,  999.0,   -4.0,   -3.8,   -3.8,   -3.6,   -3.4,   -3.2,   -3.0,   -2.8,   -2.8,   -2.7,   -2.7,   -2.5,   -2.4,   -2.1,   -2.0,   -1.8,   -1.7,   -1.6,   -1.4,   -1.3,   -1.2,   -1.0,   -0.8,   -0.8
2011/09/03 06:10,  999.0,    0.0,   -0.0,   -0.1,   -0.1,   -0.2,   -0.1,    0.2,    0.3,    0.4,    0.3,    0.2,    0.1,   -0.1,    0.0,    0.1,   -0.2,   -0.2,   -0.0,   -0.1,   -0.0,   -0.1,   -0.1,   -0.1,   -0.0,   -0.0,   -0.0,   -0.0,    0.0,    0.0,    0.0,    0.0,   -0.0,   -0.0,   -0.3,   -0.3,   -0.1,   -0.3,   -0.0,   -0.0,   -0.1,  999.0,   -0.0,   -0.0,  999.0,  999.0,  999.0,  999.0,  999.0,  999.0,  999.0,   -4.7,   -4.6,   -4.7,   -4.5,   -4.5,   -4.4,   -4.3,   -4.1,   -4.0,   -3.9,   -3.8,   -3.6,   -3.5,   -3.3,   -3.1,   -2.9,   -2.7,   -2.6,   -2.4,   -2.3,   -2.1,   -2.1,   -2.0,   -1.9,   -1.8,   -1.6,   -1.5,   -1.3,   -1.2
2011/09/03 06:20,   -0.0,    0.0,    0.0,   -0.1,   -0.1,   -0.0,   -0.0,   -0.4,   -0.7,   -0.5,   -0.4,   -0.5,   -0.3,   -0.7,   -0.5,   -0.1,   -0.3,   -0.3,   -0.1,   -0.1,   -0.1,   -0.0,   -0.0,   -0.1,   -0.1,   -0.0,   -0.1,    0.0,   -0.0,   -0.0,    0.0,    0.0,   -0.0,   -0.0,   -0.0,   -0.3,    0.0,  999.0,   -0.0,   -0.6,  999.0,  999.0,  999.0,  999.0,   -2.0,   -1.9,   -1.8,   -2.0,  999.0,  999.0,  999.0,   -6.4,   -6.2,   -6.0,   -5.8,   -5.7,   -5.6,   -5.4,   -5.3,   -5.0,   -4.8,   -4.6,   -4.4,   -4.2,   -4.0,   -3.8,   -3.6,   -3.3,   -3.2,   -3.1,   -3.0,   -2.9,   -2.8,   -2.8,   -2.7,   -2.7,   -2.6,   -2.4,   -2.3,   -2.2
2011/09/03 06:30,   -0.0,   -0.0,   -0.0,   -0.1,   -0.3,   -0.5,   -0.3,   -1.2,   -1.3,   -1.3,   -1.4,   -1.5,   -1.7,   -1.2,   -1.0,   -0.8,   -1.0,   -0.8,   -0.9,   -0.4,   -0.1,   -0.1,   -0.0,   -0.1,   -0.1,   -0.0,   -0.0,   -0.0,   -0.0,   -0.0,   -0.0,   -0.0,   -0.0,   -0.1,  999.0,  999.0,  999.0,  999.0,  999.0,  999.0,  999.0,  999.0,  999.0,  999.0,   -6.9,   -6.7,   -6.6,   -6.4,   -6.2,   -6.0,   -5.9,   -5.7,   -5.6,   -5.5,   -5.3,   -5.2,   -5.1,   -5.1,   -4.9,   -4.8,   -4.5,   -4.4,   -4.0,   -3.7,   -3.5,   -3.3,   -3.1,   -2.9,   -2.7,   -2.6,   -2.5,   -2.4,   -2.3,   -2.3,   -2.2,   -2.1,   -2.0,   -1.9,   -1.8,   -1.6
2011/09/03 06:40,  999.0,   -0.0,    0.0,   -0.0,    0.0,   -0.3,   -0.0,    0.1,    0.0,    0.0,    0.0,   -0.1,   -0.4,   -0.2,   -0.2,   -0.3,   -0.1,   -0.4,   -0.4,   -0.2,   -0.1,   -0.0,   -0.1,   -0.1,   -0.1,   -0.0,   -0.1,   -0.1,   -0.1,    0.0,    0.0,   -0.0,   -0.0,   -0.0,   -0.3,   -0.5,  999.0,    0.0,    0.0,   -0.0,   -0.0,  999.0,  999.0,   -0.1,    0.0,  999.0,  999.0,  999.0,  999.0,  999.0,  999.0,   -3.7,   -4.1,   -4.2,   -4.5,  999.0,  999.0,   -5.0,   -4.7,   -4.3,   -4.2,   -4.0,   -4.0,   -3.8,   -3.5,   -3.3,   -3.1,   -2.9,   -2.7,   -2.5,   -2.3,   -2.2,   -2.0,   -1.8,   -1.8,   -1.6,   -1.4,   -1.3,   -1.3,   -1.1
2011/09/03 06:50,   -0.0,   -0.0,   -0.0,   -0.1,   -0.1,   -0.6,   -0.2,   -0.1,   -0.5,   -0.1,   -0.2,   -0.1,   -0.0,   -0.2,    0.1,   -0.0,   -0.2,   -0.1,   -0.2,   -0.0,   -0.0,   -0.0,   -0.0,   -0.1,   -0.0,   -0.0,   -0.0,   -0.0,   -0.0,   -0.0,    0.0,   -0.0,   -0.0,   -0.0,   -0.2,   -0.7,  999.0,  999.0,    0.0,   -0.1,   -0.1,    0.0,   -0.2,   -0.0,    0.0,   -0.0,   -0.0,    0.0,   -0.0,  999.0,  999.0,  999.0,   -3.6,   -3.8,   -3.7,   -3.6,   -3.7,   -3.5,   -3.5,   -3.6,   -3.9,   -4.1,   -3.9,   -3.8,   -3.6,   -3.3,   -3.2,   -2.9,   -2.7,   -2.7,   -2.5,   -2.5,   -2.3,   -2.3,   -2.1,   -2.0,   -2.0,   -1.7,   -1.7,  999.0
2011/09/03 07:00,    0.0,    0.0,   -0.0,   -0.1,   -0.2,   -0.6,   -0.2,   -0.2,   -0.2,   -0.2,    0.0,    0.1,    0.3,    0.2,    0.3,    0.1,    0.2,   -0.1,   -0.0,   -0.0,   -0.0,   -0.0,   -0.0,   -0.0,   -0.1,   -0.0,   -0.0,   -0.0,   -0.0,    0.0,    0.0,   -0.0,   -0.0,    0.0,   -0.2,   -0.3,   -0.0,   -0.0,   -0.0,    0.0,   -0.0,  999.0,  999.0,   -0.0,   -0.1,   -0.1,    0.1,   -0.0,  999.0,  999.0,  999.0,  999.0,  999.0,  999.0,  999.0,   -3.7,   -3.8,   -3.8,   -3.9,   -4.1,   -4.1,   -4.0,   -3.9,   -3.6,   -3.6,   -3.4,   -3.1,   -2.9,   -2.8,   -2.5,   -2.5,   -2.4,   -2.2,   -2.2,   -2.0,   -2.0,   -1.8,   -1.8,  999.0,  999.0
2011/09/03 07:10,   -0.0,    0.0,    0.0,   -0.1,   -0.2,   -0.3,   -0.6,   -0.1,   -0.2,   -0.2,   -0.0,    0.1,   -0.0,    0.2,   -0.2,    0.0,   -0.0,   -0.1,   -0.1,   -0.0,   -0.0,   -0.0,   -0.1,   -0.0,   -0.0,   -0.0,    0.0,    0.0,   -0.0,   -0.0,   -0.0,   -0.1,   -0.1,   -0.1,   -0.2,    0.0,    0.1,    0.1,   -0.0,   -0.0,   -0.4,  999.0,  999.0,   -0.0,   -0.1,   -0.1,   -0.0,   -0.2,  999.0,  999.0,  999.0,   -1.8,   -1.4,   -1.3,  999.0,  999.0,  999.0,  999.0,  999.0,  999.0,  999.0,  999.0,  999.0,  999.0,  999.0,  999.0,  999.0,  999.0,   -2.0,   -2.1,   -2.0,   -2.0,   -1.9,   -1.9,   -1.9,   -1.7,   -1.6,   -1.5,   -1.5,   -1.4
2011/09/03 07:20,    0.0,    0.0,    0.1,    0.0,   -0.0,   -0.1,   -0.2,   -0.0,    0.2,    0.3,   -0.0,    0.2,    0.5,    0.7,    0.6,    0.9,    0.8,    0.6,    0.4,    0.2,    0.2,    0.1,    0.1,    0.1,    0.1,   -0.0,    0.0,    0.0,    0.0,    0.0,    0.0,    0.0,   -0.0,   -0.2,   -0.4,   -0.6,   -0.4,   -0.0,   -0.4,   -0.3,   -0.6,  999.0,   -0.4,   -0.2,   -0.0,   -0.3,   -0.0,  999.0,  999.0,   -0.9,   -1.7,   -1.8,   -1.8,   -1.8,   -1.8,   -1.6,   -1.3,   -1.6,  999.0,  999.0,  999.0,  999.0,  999.0,  999.0,  999.0,  999.0,  999.0,  999.0,  999.0,   -1.9,   -2.0,   -2.0,   -1.8,   -1.7,   -1.6,   -1.5,   -1.4,   -1.3,   -1.3,   -1.2
2011/09/03 07:30,    0.0,    0.0,   -0.0,   -0.2,   -0.5,   -0.9,   -0.2,   -0.4,   -0.1,   -0.1,   -0.2,   -0.3,   -0.1,    0.0,    0.1,   -0.0,   -0.1,    0.1,    0.1,    0.0,   -0.0,    0.0,   -0.0,    0.0,    0.0,    0.0,    0.0,    0.0,   -0.0,   -0.0,   -0.0,    0.0,   -0.0,   -0.0,   -0.4,   -0.6,   -0.5,   -0.4,   -0.4,   -0.1,   -0.3,  999.0,   -0.3,   -0.1,   -0.3,   -1.3,  999.0,  999.0,  999.0,  999.0,   -2.2,   -2.4,   -2.1,  999.0,  999.0,  999.0,  999.0,  999.0,  999.0,   -0.0,  999.0,  999.0,  999.0,  999.0,  999.0,  999.0,  999.0,  999.0,  999.0,  999.0,  999.0,  999.0,  999.0,  999.0,   -1.2,   -1.1,   -1.0,   -0.9,   -0.9,   -0.8
2011/09/03 07:40,   -0.0,    0.0,   -0.0,   -0.1,   -0.3,   -0.5,   -0.9,   -0.6,   -0.5,   -0.3,   -0.4,   -0.2,    0.0,    0.0,    0.0,    0.2,    0.2,    0.0,    0.0,   -0.0,   -0.0,   -0.0,    0.0,   -0.0,    0.0,   -0.0,   -0.0,   -0.0,   -0.0,   -0.0,    0.0,   -0.0,   -0.0,   -0.1,   -0.3,   -0.2,   -0.6,   -0.2,   -0.3,   -0.1,   -0.4,   -0.4,   -0.6,   -0.2,   -0.1,   -0.1,   -0.2,   -0.1,  999.0,    0.0,  999.0,  999.0,  999.0,  999.0,  999.0,  999.0,  999.0,  999.0,  999.0,  999.0,  999.0,  999.0,  999.0,  999.0,  999.0,  999.0,  999.0,  999.0,  999.0,  999.0,  999.0,   -2.4,   -2.4,   -2.1,   -2.1,   -1.8,   -1.8,   -1.6,   -1.6,   -1.5
2011/09/03 07:50,  999.0,   -0.0,   -0.1,  999.0,  999.0,  999.0,   -2.2,   -0.9,   -2.1,   -1.0,   -0.5,   -0.9,   -1.6,   -0.8,   -0.4,   -0.6,   -0.5,   -0.3,   -0.1,   -0.0,   -0.0,   -0.0,   -0.0,   -0.0,   -0.0,   -0.0,    0.0,    0.0,    0.0,    0.0,    0.0,    0.0,    0.0,    0.0,    0.1,    0.1,    0.0,    0.0,   -0.1,   -0.0,   -0.0,    0.2,    0.1,   -0.0,   -0.1,    0.0,   -0.0,    0.1,  999.0,  999.0,  999.0,  999.0,  999.0,  999.0,   -0.7,  999.0,  999.0,  999.0,   -2.7,   -2.4,   -2.3,   -2.3,   -2.4,   -2.5,   -2.1,   -2.1,   -2.1,   -2.1,   -2.2,   -2.1,   -2.2,   -2.1,   -2.1,   -1.9,   -1.8,   -1.7,   -1.4,   -1.2,   -1.1,   -1.0
2011/09/03 08:00,    0.0,  999.0,    0.0,   -0.3,   -0.4,   -0.0,   -0.2,   -0.3,   -0.1,   -0.1,    0.1,    0.3,    0.3,    0.0,    0.1,    0.2,    0.1,    0.1,    0.0,    0.0,    0.0,    0.0,    0.0,   -0.0,    0.0,    0.0,   -0.0,    0.0,    0.0,    0.0,    0.0,    0.0,   -0.0,   -0.0,   -0.2,    0.1,   -0.0,  999.0,   -0.1,   -0.1,   -0.1,  999.0,  999.0,   -2.6,   -2.5,   -2.5,   -2.4,   -4.9,   -5.0,   -4.9,   -5.0,   -4.7,   -4.6,   -4.4,   -4.2,   -4.1,   -3.8,   -3.7,   -3.5,   -3.4,   -3.2,   -2.9,   -2.7,   -2.5,   -2.5,   -2.2,   -2.0,   -1.9,   -1.7,   -1.5,   -1.4,   -1.3,   -1.2,   -1.0,   -0.9,   -0.8,   -0.6,   -0.5,   -0.4,   -0.3
2011/09/03 08:10,   -0.0,    0.0,   -0.0,   -0.0,   -0.3,   -0.2,   -0.0,   -0.2,   -0.3,   -0.1,    0.1,    0.1,    0.2,    0.2,    0.1,    0.1,    0.1,   -0.1,   -0.0,    0.0,   -0.0,   -0.0,   -0.0,   -0.0,    0.0,    0.0,   -0.0,    0.0,    0.0,    0.0,    0.0,    0.0,   -0.0,   -0.1,   -0.4,   -0.6,   -0.7,  999.0,  999.0,  999.0,  999.0,  999.0,  999.0,   -5.0,   -4.9,   -4.9,   -4.9,   -4.8,   -4.6,   -4.5,   -4.5,   -4.4,   -4.2,   -4.1,   -3.9,   -3.7,   -3.6,   -3.5,   -3.4,   -3.3,   -3.1,   -2.8,   -2.7,   -2.5,   -2.3,   -2.1,   -1.8,   -1.7,   -1.6,   -1.4,   -1.2,   -1.1,   -1.0,   -0.9,   -0.8,   -0.9,   -0.8,   -0.9,   -0.7,   -0.7
2011/09/03 08:20,   -0.0,   -0.0,   -0.0,   -0.0,   -0.1,   -0.1,   -0.0,    0.3,    0.3,    0.3,    0.2,    0.3,    0.4,    0.4,    0.4,    0.4,    0.3,    0.2,    0.2,    0.0,    0.0,    0.0,    0.0,    0.0,    0.0,    0.0,    0.0,    0.0,   -0.0,    0.0,    0.0,    0.0,   -0.0,   -0.0,   -0.4,   -0.6,   -0.7,   -0.9,   -0.4,   -0.3,   -0.7,   -0.7,   -0.3,   -0.3,   -0.2,  999.0,  999.0,  999.0,  999.0,   -5.3,   -5.2,   -5.2,   -5.0,   -5.0,   -4.8,   -4.7,   -4.6,   -4.4,   -4.2,   -4.0,   -3.9,   -3.6,   -3.4,   -3.2,   -2.9,   -2.6,   -2.3,   -2.2,   -2.0,   -1.8,   -1.7,   -1.6,   -1.5,   -1.4,   -1.3,   -1.2,   -1.2,   -1.1,   -1.1,   -1.0
2011/09/03 08:30,  999.0,    0.0,   -0.0,   -0.1,   -0.0,   -0.3,    0.1,    0.4,    0.2,    0.4,    0.3,    0.1,    0.3,    0.5,    0.4,    0.3,    0.3,    0.2,    0.2,    0.0,    0.0,   -0.0,    0.0,    0.0,    0.0,   -0.0,    0.0,   -0.0,    0.0,    0.0,    0.0,    0.0,   -0.0,   -0.0,    0.0,   -0.1,    0.0,   -0.1,    0.0,   -0.1,  999.0,    0.4,  999.0,  999.0,  999.0,  999.0,  999.0,  999.0,  999.0,  999.0,   -4.8,   -4.7,   -4.5,   -4.5,   -4.4,   -4.3,   -4.1,   -4.0,   -3.9,   -3.9,   -3.8,   -3.7,   -3.5,   -3.4,   -3.2,   -3.1,   -3.0,   -2.9,   -2.7,   -2.3,   -2.1,   -2.1,   -2.0,   -1.8,   -1.6,   -1.4,   -1.4,   -1.3,   -1.2,   -1.2
2011/09/03 08:40,   -0.0,    0.0,   -0.0,   -0.3,   -0.5,   -0.5,   -0.4,   -0.2,    0.2,    0.3,   -0.2,    0.1,    0.5,    0.2,    0.1,    0.0,    0.2,   -0.0,   -0.1,   -0.0,    0.0,   -0.0,   -0.0,    0.0,   -0.0,   -0.0,    0.0,    0.0,   -0.0,    0.0,    0.0,   -0.0,   -0.0,    0.0,   -0.0,   -0.0,   -0.1,   -0.1,   -0.1,    0.0,  999.0,  999.0,  999.0,    0.0,    0.3,    0.1,    0.0,    0.1,  999.0,  999.0,  999.0,  999.0,   -3.8,   -3.6,   -3.6,   -3.6,   -3.5,   -3.4,   -3.3,   -3.3,   -3.2,   -3.2,   -3.1,   -3.1,   -2.9,   -2.8,   -2.6,   -2.5,   -2.3,   -2.2,   -2.0,   -1.9,   -1.7,   -1.5,   -1.4,   -1.4,   -1.3,   -1.2,   -1.2,   -1.1
2011/09/03 08:50,  999.0,   -0.0,   -1.7,   -1.3,   -2.0,   -1.8,   -1.9,   -2.2,   -2.6,   -1.7,   -1.7,   -0.9,   -1.1,   -0.2,    0.9,    0.3,    0.4,    0.1,   -0.1,    0.0,    0.0,    0.0,    0.0,    0.0,   -0.0,    0.0,    0.0,    0.0,   -0.0,    0.0,    0.0,   -0.0,   -0.0,   -0.0,   -0.2,   -0.2,   -0.4,   -0.7,   -0.5,   -0.1,  999.0,  999.0,  999.0,  999.0,  999.0,  999.0,  999.0,  999.0,   -4.1,   -3.8,   -4.0,   -3.9,   -3.9,   -3.8,   -3.7,   -3.6,   -3.4,   -3.4,   -3.3,   -3.2,   -3.0,   -2.9,   -2.8,   -2.7,   -2.5,   -2.4,   -2.3,   -2.2,   -2.1,   -2.0,   -1.8,   -1.7,   -1.5,   -1.5,   -1.4,   -1.3,   -1.2,   -1.1,   -1.1,   -1.0
2011/09/03 09:00,  999.0,  999.0,   -1.2,  999.0,   -1.6,   -2.1,   -1.7,   -1.5,   -1.3,   -1.2,   -1.1,   -1.1,   -1.0,   -0.8,   -0.9,   -0.5,   -0.2,   -0.1,    0.0,   -0.1,    0.0,    0.0,    0.0,   -0.0,    0.0,    0.0,   -0.0,    0.0,    0.0,    0.0,    0.0,    0.0,    0.0,    0.0,   -0.1,   -0.2,   -0.3,   -0.2,   -0.1,   -0.0,   -0.0,  999.0,  999.0,   -0.0,   -0.0,   -0.0,  999.0,  999.0,  999.0,  999.0,   -3.7,   -3.7,   -3.7,   -3.6,   -3.4,   -3.3,   -3.2,   -3.1,   -3.0,   -2.9,   -2.7,   -2.6,   -2.5,   -2.4,   -2.2,   -2.0,   -2.0,   -1.8,   -1.8,   -1.7,   -1.6,   -1.6,   -1.5,   -1.4,   -1.3,   -1.2,   -1.2,   -1.2,   -1.1,   -1.1
2011/09/03 09:10,    0.0,    0.0,   -0.0,   -0.2,   -0.5,   -0.6,   -0.6,   -0.8,   -0.6,   -0.6,   -0.3,   -0.3,   -0.3,   -0.1,    0.0,    0.2,    0.2,    0.2,    0.1,    0.0,    0.0,   -0.0,    0.0,    0.0,    0.0,    0.0,    0.0,    0.0,   -0.0,    0.0,    0.0,    0.0,    0.0,   -0.0,   -0.1,   -0.2,   -0.2,   -0.1,   -0.2,   -0.1,   -0.1,    0.0,  999.0,   -0.1,   -0.1,   -0.0,   -0.0,  999.0,  999.0,  999.0,  999.0,   -3.7,   -3.5,   -3.5,   -3.4,   -3.3,   -3.2,   -3.0,   -2.9,   -2.7,   -2.6,   -2.5,   -2.3,   -2.2,   -2.1,   -2.1,   -2.0,   -2.0,   -1.9,   -1.9,   -1.8,   -1.8,   -1.7,   -1.6,   -1.5,   -1.4,   -1.3,   -1.3,   -1.1,   -1.1
2011/09/03 09:20,   -0.1,    0.0,    0.0,   -0.3,   -0.5,   -0.6,   -0.8,   -0.6,   -0.6,   -0.4,   -0.2,   -0.2,   -0.2,   -0.1,   -0.0,   -0.0,    0.1,    0.1,    0.1,    0.0,   -0.0,   -0.0,   -0.0,   -0.0,   -0.0,   -0.0,    0.0,    0.0,   -0.0,   -0.0,    0.0,   -0.0,   -0.0,   -0.1,   -0.3,   -0.7,   -0.2,   -0.3,   -0.1,   -0.1,    0.2,  999.0,  999.0,    0.0,    0.0,   -0.0,   -0.1,  999.0,   -3.7,   -3.7,   -3.8,   -3.9,   -3.8,   -3.9,   -3.9,   -3.8,   -3.7,   -3.6,   -3.5,   -3.4,   -3.3,   -3.1,   -2.9,   -2.8,   -2.8,   -2.7,   -2.5,   -2.3,   -2.2,   -2.1,   -2.0,   -1.9,   -1.9,   -1.8,   -1.8,   -1.6,   -1.5,   -1.4,   -1.4,   -1.1
2011/09/03 09:30,   -0.0,   -0.0,   -0.0,   -0.1,   -0.1,   -0.2,   -0.2,   -0.2,   -0.1,    0.0,   -0.2,    0.1,   -0.0,    0.1,    0.3,    0.1,   -0.0,   -0.0,   -0.1,   -0.0,    0.0,   -0.0,    0.0,   -0.0,    0.0,    0.0,    0.0,    0.0,    0.0,   -0.0,    0.0,    0.0,   -0.0,   -0.1,   -0.1,    0.1,   -0.1,   -0.4,   -0.2,   -0.0,   -0.2,   -0.1,   -0.2,    0.0,   -0.1,    0.0,   -0.0,   -0.1,  999.0,  999.0,   -4.0,   -4.2,   -4.2,   -4.0,   -4.0,   -3.8,   -3.8,   -3.7,   -3.7,   -3.5,   -3.4,   -3.2,   -3.1,   -3.0,   -2.9,   -2.6,   -2.6,   -2.4,   -2.2,   -2.0,   -1.9,   -1.8,   -1.7,   -1.5,   -1.4,   -1.3,   -1.2,   -1.1,   -1.1,   -1.0
2011/09/03 09:40,   -0.0,   -0.0,   -0.0,   -0.1,   -0.3,   -0.2,   -0.4,   -0.6,   -0.8,   -1.1,   -0.6,   -0.2,   -0.2,   -0.2,   -0.3,   -0.2,   -0.4,   -0.3,   -0.2,   -0.0,    0.0,   -0.0,   -0.0,   -0.0,    0.0,    0.0,    0.0,    0.0,   -0.0,   -0.0,    0.0,   -0.0,   -0.1,   -0.1,   -0.4,   -0.5,   -0.5,   -0.3,   -0.3,   -0.1,   -0.2,  999.0,   -0.4,   -0.0,   -0.0,    0.1,   -0.0,   -0.0,  999.0,  999.0,  999.0,  999.0,  999.0,   -3.7,   -3.7,   -3.8,   -3.7,   -3.7,   -3.7,   -3.5,   -3.5,   -3.3,   -3.1,   -3.0,   -2.9,   -2.8,   -2.6,   -2.4,   -2.3,   -2.2,   -2.1,   -2.0,   -1.8,   -1.7,   -1.5,   -1.5,   -1.4,   -1.4,   -1.3,   -1.2
2011/09/03 09:50,  999.0,    0.0,   -0.1,   -0.4,   -1.3,   -0.9,   -1.1,   -1.6,   -1.9,   -1.8,   -1.6,   -1.4,   -1.4,   -1.2,   -1.0,   -0.8,   -0.6,   -0.3,   -0.3,   -0.0,   -0.0,   -0.0,    0.0,    0.0,    0.0,    0.0,   -0.0,   -0.0,    0.0,    0.0,    0.0,   -0.0,   -0.1,   -0.1,   -0.3,   -0.6,   -0.4,   -0.7,   -0.4,   -0.4,   -0.5,   -0.6,   -0.3,   -0.0,   -0.1,  999.0,  999.0,  999.0,  999.0,  999.0,  999.0,  999.0,  999.0,   -4.0,   -4.3,   -4.3,   -4.5,   -4.3,   -4.0,   -3.9,   -3.8,   -3.9,   -3.8,   -3.5,   -3.4,   -3.2,   -3.0,   -2.8,   -2.7,   -2.6,   -2.4,   -2.2,   -2.2,   -2.2,   -2.1,   -2.0,   -1.9,   -1.8,   -1.7,   -1.6
2011/09/03 10:00,   -0.0,    0.0,   -0.0,   -0.2,   -0.3,   -0.6,   -0.5,   -0.7,   -0.5,   -0.3,   -0.1,   -0.1,   -0.4,   -0.3,   -0.2,   -0.2,   -0.1,   -0.1,   -0.1,   -0.0,   -0.0,    0.0,    0.0,    0.0,   -0.0,    0.0,   -0.0,    0.0,   -0.0,    0.0,    0.0,   -0.0,   -0.0,   -0.0,   -0.3,   -0.7,   -1.0,   -0.7,   -0.5,   -0.4,  999.0,  999.0,  999.0,   -0.1,    0.0,  999.0,   -0.0,  999.0,  999.0,  999.0,  999.0,   -4.5,   -4.4,   -4.1,   -4.0,   -3.9,   -3.8,   -3.7,   -3.5,   -3.4,   -3.3,   -3.2,   -3.1,   -3.0,   -3.0,   -2.8,   -2.8,   -2.8,   -2.6,   -2.4,   -2.3,   -2.1,   -2.0,   -1.9,   -1.8,   -1.8,   -1.7,   -1.7,   -1.6,   -1.5
2011/09/03 10:10,    0.0,   -0.0,   -0.0,   -0.1,   -0.3,   -0.4,   -0.1,   -0.5,   -0.3,   -0.6,   -0.4,   -0.3,   -0.3,   -0.3,   -0.3,   -0.1,   -0.1,   -0.1,    0.0,    0.0,    0.0,   -0.0,   -0.0,   -0.0,    0.0,   -0.0,   -0.0,    0.0,   -0.0,    0.0,   -0.0,   -0.0,   -0.0,   -0.1,   -0.3,   -0.7,  999.0,  999.0,   -0.7,  999.0,  999.0,  999.0,  999.0,  999.0,   -6.0,   -5.9,   -6.0,   -5.9,   -6.0,   -5.9,   -5.8,   -5.9,   -5.8,   -5.6,   -5.4,   -5.1,   -4.9,   -4.7,   -4.5,   -4.3,   -4.2,   -4.0,   -3.8,   -3.5,   -3.3,   -3.1,   -3.0,   -2.8,   -2.6,   -2.5,   -2.4,   -2.2,   -2.1,   -2.0,   -2.0,   -1.9,   -1.9,   -1.9,   -1.8,   -1.7
2011/09/03 10:20,    0.0,    0.0,   -0.0,   -0.1,   -0.2,   -0.7,   -0.6,   -0.3,   -0.3,   -0.5,    0.1,   -0.1,   -0.6,   -0.4,   -0.4,   -0.2,   -0.2,   -0.1,    0.0,    0.0,   -0.0,    0.0,   -0.0,    0.0,   -0.0,   -0.0,    0.0,   -0.0,    0.0,    0.0,    0.0,    0.0,   -0.0,   -0.0,   -0.3,  999.0,  999.0,  999.0,  999.0,  999.0,  999.0,  999.0,  999.0,  999.0,   -6.3,  999.0,   -6.2,   -6.0,   -5.9,   -6.0,   -5.8,   -6.0,   -5.8,   -5.7,   -5.5,   -5.3,   -5.2,   -5.1,   -4.9,   -4.8,   -4.6,   -4.5,   -4.3,   -4.1,   -4.0,   -3.9,   -3.6,   -3.3,   -3.1,   -2.9,   -2.8,   -2.5,   -2.4,   -2.2,   -2.1,   -2.0,   -1.9,   -1.8,   -1.7,   -1.7
2011/09/03 10:30,   -0.0,    0.0,   -0.0,   -0.3,   -0.6,   -1.1,   -0.6,   -1.1,   -1.0,   -1.8,   -0.8,   -1.1,   -1.2,   -1.1,   -0.9,   -0.6,   -0.7,   -0.3,   -0.1,   -0.0,   -0.0,    0.0,    0.0,   -0.0,   -0.0,    0.0,    0.0,   -0.0,   -0.0,    0.0,    0.0,   -0.0,   -0.0,   -0.1,   -0.4,   -0.2,  999.0,   -0.2,   -0.0,    0.0,  999.0,  999.0,  999.0,  999.0,  999.0,  999.0,  999.0,   -5.8,   -5.8,   -5.8,   -5.7,   -5.4,   -5.3,   -5.0,   -5.1,   -4.9,   -4.7,   -4.6,   -4.4,   -4.2,   -4.1,   -3.9,   -3.7,   -3.6,   -3.4,   -3.2,   -3.1,   -2.9,   -2.7,   -2.5,   -2.3,   -2.1,   -2.0,   -1.8,   -1.6,   -1.5,   -1.4,   -1.3,   -1.2,   -1.1
2011/09/03 10:40,   -0.0,    0.0,    0.0,   -0.1,   -0.2,   -0.9,   -0.9,   -0.7,   -0.3,   -0.3,   -0.1,   -0.2,   -0.1,   -0.0,   -0.2,   -0.1,    0.0,   -0.0,   -0.1,    0.0,   -0.0,    0.0,   -0.0,   -0.0,   -0.0,    0.0,    0.0,   -0.0,    0.0,   -0.0,    0.0,    0.0,   -0.0,   -0.0,   -0.1,   -0.1,   -0.4,  999.0,   -0.3,   -0.1,   -0.4,  999.0,  999.0,  999.0,  999.0,  999.0,   -5.7,   -5.5,   -5.5,   -5.4,   -5.3,   -5.2,   -5.0,   -4.9,   -4.8,   -4.6,   -4.5,   -4.3,   -4.2,   -4.1,   -3.8,   -3.7,   -3.5,   -3.3,   -3.2,   -3.0,   -3.0,   -2.8,   -2.6,   -2.5,   -2.3,   -2.2,   -1.9,   -1.7,   -1.5,   -1.5,   -1.5,   -1.5,   -1.3,   -1.3
2011/09/03 10:50,   -0.0,   -0.0,    0.0,   -0.1,   -0.3,   -0.4,   -0.6,   -0.6,   -0.4,   -0.3,   -0.1,   -0.0,   -0.1,   -0.1,   -0.1,   -0.0,   -0.0,   -0.0,   -0.1,   -0.0,   -0.0,    0.0,   -0.0,   -0.0,   -0.0,    0.0,    0.0,   -0.0,   -0.0,    0.0,   -0.0,    0.0,   -0.0,   -0.0,   -4.9,   -4.9,   -4.8,  999.0,   -4.5,  999.0,  999.0,  999.0,   -6.3,   -6.4,   -6.1,   -5.8,   -5.6,   -5.5,   -5.3,   -5.2,   -5.1,   -4.9,   -4.8,   -4.5,   -4.4,   -4.3,   -4.1,   -3.9,   -3.8,   -3.6,   -3.4,   -3.3,   -3.1,   -3.0,   -2.9,   -2.7,   -2.5,   -2.3,   -2.2,   -2.1,   -1.9,   -1.8,   -1.8,   -1.7,   -1.5,   -1.4,   -1.4,   -1.3,   -1.3,   -1.1
2011/09/03 11:00,  999.0,    0.0,    0.0,   -0.1,   -0.2,   -0.9,   -1.1,   -1.3,   -1.2,   -1.3,   -0.6,   -0.5,   -0.7,   -0.6,   -0.5,   -0.3,   -0.2,   -0.1,   -0.0,   -0.0,   -0.0,    0.0,    0.0,   -0.0,    0.0,    0.0,    0.0,   -0.0,  999.0,  999.0,  999.0,  999.0,  999.0,  999.0,   -9.1,   -8.5,   -8.0,   -7.7,   -7.5,   -7.1,   -6.8,   -6.4,   -6.0,   -5.8,   -5.6,   -5.4,   -5.3,   -5.1,   -5.0,   -4.9,   -4.7,   -4.7,   -4.5,   -4.4,   -4.3,   -4.1,   -4.0,   -3.9,   -3.8,   -3.7,   -3.5,   -3.4,   -3.2,   -3.1,   -2.9,   -2.7,   -2.6,   -2.6,   -2.4,   -2.2,   -2.1,   -2.0,   -1.9,   -1.8,   -1.6,   -1.5,   -1.5,   -1.5,   -1.3,   -1.2
2011/09/03 11:10,  999.0,    0.0,    0.0,   -0.0,   -0.2,   -0.7,   -0.6,   -0.7,   -0.1,   -0.2,   -0.1,   -0.1,   -0.1,   -0.1,   -0.0,   -0.1,   -0.0,   -0.0,    0.0,    0.0,    0.0,    0.0,   -0.0,   -0.0,   -0.0,   -0.0,    0.0,   -0.0,    0.0,   -0.0,   -0.1,   -0.1,   -0.0,   -0.1,  999.0,  999.0,  999.0,  999.0,  999.0,  999.0,  999.0,   -6.6,   -6.5,   -6.3,   -6.1,   -5.9,   -5.8,   -5.7,   -5.5,   -5.2,   -5.1,   -4.8,   -4.8,   -4.7,   -4.7,   -4.6,   -4.4,   -4.4,   -4.3,   -4.2,   -4.1,   -4.0,   -3.9,   -3.7,   -3.6,   -3.4,   -3.2,   -3.0,   -2.8,   -2.7,   -2.4,   -2.3,   -2.1,   -1.9,   -1.9,   -1.8,   -1.8,   -1.7,   -1.6,   -1.5
2011/09/03 11:20,  999.0,    0.0,    0.0,    0.0,   -0.1,   -0.5,   -0.8,   -0.1,   -0.2,   -0.5,   -0.1,   -0.3,   -0.5,   -0.3,   -0.3,   -0.3,   -0.2,   -0.1,   -0.1,   -0.0,    0.0,    0.0,    0.0,    0.0,    0.0,   -0.0,    0.0,    0.0,    0.0,    0.0,    0.0,   -0.0,   -0.1,   -0.2,   -0.6,   -0.8,   -1.3,   -2.0,  999.0,  999.0,  999.0,   -6.1,   -5.8,   -5.5,   -6.1,   -5.8,   -5.6,   -5.6,   -5.5,   -5.5,   -5.3,   -5.2,   -5.1,   -5.0,   -4.8,   -4.6,   -4.5,   -4.4,   -4.4,   -4.3,   -4.1,   -4.0,   -3.8,   -3.6,   -3.4,   -3.3,   -3.1,   -2.9,   -2.7,   -2.6,   -2.4,   -2.2,   -2.0,   -1.9,   -1.8,   -1.7,   -1.7,   -1.6,   -1.5,   -1.5
2011/09/03 11:30,    0.0,    0.0,    0.0,   -0.0,    0.0,   -0.3,   -0.1,   -0.6,   -0.6,   -0.3,   -0.1,   -0.1,   -0.1,   -0.2,    0.2,    0.0,    0.0,   -0.0,   -0.0,    0.0,    0.0,    0.0,    0.0,   -0.0,   -0.0,   -0.0,    0.0,    0.0,    0.0,    0.0,    0.0,   -0.0,   -0.0,   -0.0,  999.0,  999.0,  999.0,  999.0,   -8.1,   -7.8,   -7.7,   -7.4,   -7.3,   -7.5,   -6.8,   -6.7,   -6.7,   -6.6,   -6.4,   -6.3,   -6.1,   -6.0,   -5.9,   -5.7,   -5.6,   -5.4,   -5.2,   -5.1,   -4.9,   -4.8,   -4.6,   -4.4,   -4.2,   -3.9,   -3.7,   -3.5,   -3.3,   -3.1,   -2.8,   -2.7,   -2.5,   -2.3,   -2.2,   -2.2,   -2.1,   -2.0,   -1.8,   -1.7,   -1.5,   -1.4
2011/09/03 11:40,   -0.0,    0.0,   -0.0,   -0.0,   -0.0,   -0.4,    0.1,   -0.0,   -0.1,   -0.2,   -0.1,    0.1,    0.4,    0.0,   -0.1,   -0.1,   -0.2,   -0.0,    0.0,    0.0,    0.0,   -0.0,   -0.0,   -0.0,   -0.0,    0.0,   -0.0,   -0.0,   -0.0,   -0.0,  999.0,  999.0,  999.0,  999.0,  999.0,  999.0,  999.0,   -8.6,   -8.5,   -8.3,   -7.9,   -7.6,   -7.3,   -7.0,   -6.7,   -6.5,   -6.4,   -6.2,   -6.1,   -6.0,   -5.8,   -5.6,   -5.4,   -5.2,   -4.9,   -4.7,   -4.5,   -4.4,   -4.2,   -4.0,   -3.9,   -3.7,   -3.5,   -3.3,   -3.2,   -3.1,   -2.9,   -2.7,   -2.5,   -2.3,   -2.1,   -2.0,   -1.9,   -1.8,   -1.8,   -1.8,   -1.7,   -1.6,   -1.5,   -1.4
2011/09/03 11:50,    0.0,    0.0,    0.0,   -0.0,   -0.1,   -0.3,   -0.5,   -0.4,   -0.5,   -0.4,   -0.2,   -0.1,   -0.3,   -0.1,   -0.2,   -0.3,   -0.2,   -0.1,   -0.1,   -0.0,    0.0,   -0.0,    0.0,   -0.0,    0.0,    0.0,    0.0,   -0.0,   -0.0,   -0.0,  999.0,  999.0,  999.0,  999.0,  999.0,  999.0,  999.0,   -8.3,   -7.9,   -7.5,   -7.1,   -6.9,   -6.7,   -6.5,   -6.2,   -6.0,   -5.9,   -5.7,   -5.5,   -5.4,   -5.3,   -5.2,   -5.1,   -5.0,   -4.9,   -4.8,   -4.6,   -4.3,   -4.2,   -3.9,   -3.9,   -3.7,   -3.5,   -3.4,   -3.2,   -3.0,   -2.8,   -2.6,   -2.5,   -2.3,   -2.2,   -2.1,   -2.0,   -2.0,   -1.9,   -1.7,   -1.7,   -1.5,   -1.4,   -1.3
2011/09/03 12:00,   -0.0,    0.0,    0.0,   -0.0,   -0.1,    0.0,   -0.1,   -0.2,   -0.3,   -0.3,   -0.1,   -0.1,   -0.1,   -0.1,   -0.1,   -0.1,   -0.1,   -0.1,   -0.1,   -0.0,   -0.0,   -0.0,   -0.0,   -0.0,   -0.0,   -0.0,    0.0,    0.0,  999.0,   -1.1,  999.0,  999.0,  999.0,  999.0,   -9.1,   -8.5,   -8.1,   -7.7,   -7.3,   -7.1,   -6.7,   -6.4,   -6.2,   -6.0,   -5.9,   -5.7,   -5.6,   -5.5,   -5.4,   -5.3,   -5.3,   -5.1,   -5.0,   -4.8,   -4.7,   -4.6,   -4.4,   -4.3,   -4.2,   -4.1,   -4.0,   -3.8,   -3.5,   -3.5,   -3.2,   -2.9,   -2.8,   -2.7,   -2.5,   -2.5,   -2.3,   -2.2,   -2.2,   -2.1,   -2.0,   -1.9,   -1.8,   -1.8,   -1.7,   -1.5
2011/09/03 12:10,    0.0,   -0.0,   -0.0,   -0.0,   -0.0,   -0.1,   -0.6,   -0.4,   -0.2,   -0.3,   -0.1,   -0.1,   -0.2,   -0.2,   -0.2,   -0.1,   -0.1,   -0.0,   -0.1,   -0.0,   -0.0,   -0.0,    0.0,   -0.0,   -0.0,    0.0,   -0.2,   -0.1,    0.0,    0.0,   -0.0,    0.0,   -0.4,  999.0,   -4.7,   -5.4,   -5.1,   -7.6,   -7.0,   -6.7,   -6.4,   -6.2,   -6.1,   -6.1,   -6.1,   -6.0,   -6.0,   -5.9,   -5.8,   -5.8,   -5.6,   -5.4,   -5.3,   -5.1,   -4.9,   -4.8,   -4.7,   -4.6,   -4.6,   -4.4,   -4.3,   -4.1,   -4.0,   -3.8,   -3.7,   -3.5,   -3.3,   -3.0,   -2.9,   -2.6,   -2.4,   -2.3,   -2.0,   -2.0,   -1.9,   -1.8,   -1.7,   -1.6,   -1.5,   -1.4
2011/09/03 12:20,   -0.0,    0.0,   -0.0,   -0.0,    0.0,   -0.2,   -0.4,   -0.1,    0.1,    0.2,    0.1,    0.1,    0.3,    0.3,    0.2,    0.1,    0.1,   -0.0,   -0.1,   -0.0,   -0.0,    0.0,    0.0,   -0.0,    0.0,    0.0,   -0.0,    0.0,    0.0,    0.0,    0.0,   -0.0,   -0.2,   -1.1,   -2.2,   -3.1,   -2.8,  999.0,  999.0,   -7.4,   -7.1,   -6.7,   -6.4,   -6.1,   -5.8,   -5.7,   -5.4,   -5.2,   -5.1,   -5.1,   -4.9,   -4.9,   -4.9,   -4.9,   -4.8,   -4.7,   -4.7,   -4.5,   -4.5,   -4.4,   -4.2,   -4.0,   -3.9,   -3.8,   -3.7,   -3.5,   -3.4,   -3.0,   -3.1,   -2.8,   -2.5,   -2.3,   -2.1,   -2.0,   -1.8,   -1.7,   -1.7,   -1.6,   -1.5,   -1.4
2011/09/03 12:30,   -0.0,   -0.0,   -0.0,    0.0,    0.0,    0.0,   -0.3,   -0.3,   -0.3,   -0.1,   -0.0,    0.0,    0.2,   -0.3,    0.0,    0.0,   -0.1,   -0.1,   -0.0,   -0.0,   -0.0,    0.0,    0.0,   -0.0,   -0.0,    0.0,    0.0,   -0.0,  999.0,  999.0,  999.0,  999.0,  999.0,   -9.5,  999.0,   -9.8,   -9.5,   -8.9,   -7.8,   -7.2,   -6.4,   -6.0,   -5.5,   -5.2,   -5.0,   -4.8,   -4.7,   -4.6,   -4.5,   -4.4,   -4.3,   -4.1,   -3.9,   -3.8,   -3.7,   -3.6,   -3.5,   -3.4,   -3.2,   -3.1,   -3.0,   -2.9,   -2.7,   -2.6,   -2.4,   -2.3,   -2.2,   -2.1,   -1.9,   -1.8,   -1.6,   -1.5,   -1.3,   -1.2,   -1.1,   -1.0,   -0.9,   -0.8,   -0.7,   -0.8
2011/09/03 12:40,  999.0,    0.0,   -0.0,    0.0,   -0.0,   -0.5,   -0.1,   -0.5,   -0.1,   -0.4,   -0.1,   -0.1,   -0.2,   -0.1,   -0.1,   -0.1,   -0.0,   -0.1,   -0.1,   -0.0,   -0.0,   -0.0,   -0.0,   -0.0,   -0.0,   -0.0,   -0.0,    0.0,    0.0,  999.0,  999.0,  999.0,  999.0,   -9.5,   -9.5,   -9.1,   -9.3,   -8.3,   -7.4,   -6.9,   -6.2,   -5.6,   -5.2,   -5.0,   -4.8,   -4.6,   -4.5,   -4.4,   -4.2,   -4.2,   -4.0,   -3.8,   -3.7,   -3.5,   -3.5,   -3.5,   -3.4,   -3.3,   -3.3,   -3.2,   -3.1,   -3.0,   -2.9,   -2.7,   -2.5,   -2.4,   -2.2,   -2.1,   -2.0,   -1.8,   -1.7,   -1.6,   -1.4,   -1.3,   -1.2,   -1.1,   -1.1,   -1.0,   -0.9,   -0.9
2011/09/03 12:50,   -0.0,   -0.0,   -0.0,   -0.1,   -0.1,    0.3,   -0.0,   -0.0,   -0.3,   -0.3,   -0.1,   -0.1,   -0.3,   -0.1,    0.0,   -0.0,    0.0,   -0.0,   -0.1,    0.0,    0.0,    0.0,    0.0,   -0.0,   -0.0,   -0.0,   -0.0,    0.0,    0.0,    0.0,   -0.0,   -0.0,   -0.0,   -0.1,   -0.2,  999.0,  999.0,   -2.5,  999.0,  999.0,  999.0,   -5.8,   -5.4,   -5.1,   -4.9,   -4.9,   -4.8,   -4.7,   -4.6,   -4.5,   -4.4,   -4.3,   -4.2,   -4.1,   -4.1,   -4.0,   -3.8,   -3.7,   -3.6,   -3.5,   -3.4,   -3.2,   -3.2,   -3.0,   -2.9,   -2.7,   -2.6,   -2.5,   -2.3,   -2.2,   -2.0,   -1.9,   -1.8,   -1.6,   -1.5,   -1.4,   -1.4,   -1.3,   -1.2,   -1.1
2011/09/03 13:00,    0.0,    0.0,   -0.0,   -0.0,    0.1,   -0.2,   -0.0,   -0.5,   -0.1,   -0.3,   -0.1,    0.1,   -0.1,   -0.2,   -0.1,   -0.0,   -0.1,   -0.2,   -0.1,   -0.0,   -0.0,   -0.0,   -0.0,   -0.0,   -0.0,   -0.0,    0.0,   -0.0,   -0.0,   -0.0,    0.0,    0.0,   -0.0,   -0.2,   -0.7,   -0.9,   -1.7,   -3.1,   -2.9,  999.0,  999.0,   -5.1,   -4.9,   -4.7,   -4.6,   -4.6,   -4.6,   -4.6,   -4.5,   -4.3,   -4.2,   -4.0,   -3.9,   -3.8,   -3.8,   -3.7,   -3.6,   -3.5,   -3.5,   -3.3,   -3.3,   -3.2,   -3.1,   -3.0,   -2.9,   -2.8,   -2.7,   -2.5,   -2.4,   -2.2,   -2.0,   -1.9,   -1.8,   -1.8,   -1.7,   -1.6,   -1.6,   -1.5,   -1.4,   -1.3
2011/09/03 13:10,   -0.0,   -0.0,   -0.0,   -0.0,   -0.2,   -0.1,   -0.3,   -0.3,   -0.4,   -0.8,   -0.2,   -0.1,   -0.3,   -0.1,   -0.2,   -0.1,   -0.1,   -0.1,   -0.1,   -0.0,   -0.0,   -0.0,   -0.0,   -0.0,   -0.0,    0.0,    0.0,    0.0,    0.0,    0.0,    0.0,    0.0,   -0.0,   -1.2,   -2.2,   -2.5,  999.0,  999.0,  999.0,  999.0,  999.0,   -6.8,   -6.8,   -6.3,   -5.6,   -5.5,   -5.3,   -5.3,   -4.9,   -4.7,   -4.5,   -4.3,   -4.4,   -4.3,   -4.2,   -4.1,   -4.0,   -3.9,   -3.8,   -3.8,   -3.8,   -3.5,   -3.6,   -3.4,   -3.2,   -3.2,   -3.0,   -2.9,   -2.8,   -2.6,   -2.5,   -2.3,   -2.2,   -2.0,   -1.9,   -1.8,   -1.8,   -1.7,   -1.7,   -1.6
2011/09/03 13:20,  999.0,    0.0,   -0.0,    0.1,   -0.1,   -0.1,   -0.5,   -0.3,   -0.8,   -0.6,   -0.2,   -0.1,   -0.3,   -0.1,   -0.2,   -0.0,   -0.1,   -0.1,   -0.2,    0.0,   -0.0,    0.0,   -0.0,    0.0,    0.0,    0.0,    0.0,    0.0,  999.0,  999.0,  999.0,  999.0,  999.0,   -3.2,   -3.8,   -5.6,  999.0,   -8.0,   -7.6,   -7.1,   -6.5,   -6.3,   -6.0,   -5.8,   -5.6,   -5.4,   -5.3,   -5.2,   -5.0,   -4.9,   -4.8,   -4.6,   -4.3,   -4.2,   -4.1,   -4.0,   -3.9,   -3.8,   -3.8,   -3.7,   -3.5,   -3.3,   -3.3,   -3.1,   -3.0,   -2.8,   -2.7,   -2.5,   -2.3,   -2.1,   -1.9,   -1.7,   -1.6,   -1.5,   -1.4,   -1.4,   -1.3,   -1.2,   -1.2,   -1.1
2011/09/03 13:30,  999.0,   -0.0,   -0.0,   -0.0,   -0.3,   -0.3,   -1.0,   -1.1,  999.0,   -0.9,   -0.2,   -0.3,   -0.4,   -0.4,   -0.5,   -0.2,   -0.3,   -0.1,   -0.1,   -0.0,   -0.0,   -0.0,   -0.0,   -0.1,   -0.0,   -0.0,   -0.0,   -0.0,   -0.1,  999.0,  999.0,   -7.2,   -6.3,  999.0,  999.0,  999.0,   -9.1,   -8.3,   -7.5,   -7.0,   -6.5,   -6.2,   -6.0,   -5.8,   -5.6,   -5.5,   -5.3,   -5.1,   -4.8,   -4.6,   -4.4,   -4.4,   -4.2,   -4.1,   -3.9,   -3.8,   -3.8,   -3.7,   -3.6,   -3.6,   -3.5,   -3.5,   -3.4,   -3.3,   -3.0,   -2.9,   -2.7,   -2.6,   -2.5,   -2.3,   -2.1,   -2.0,   -1.9,   -1.8,   -1.7,   -1.6,   -1.5,   -1.5,   -1.3,   -1.3
2011/09/03 13:40,    0.0,    0.0,   -0.0,   -0.0,   -0.1,   -0.2,   -0.2,   -0.2,   -0.1,   -0.2,   -0.0,   -0.1,   -0.1,   -0.1,   -0.1,   -0.1,   -0.2,   -0.1,   -0.1,    0.0,    0.0,    0.0,   -0.0,   -0.0,   -0.0,  999.0,  999.0,  999.0,  999.0,  999.0,  999.0,  999.0,   -9.1,   -9.2,   -9.3,   -9.3,   -8.9,   -8.2,   -7.6,   -6.7,   -6.1,   -5.7,   -5.4,   -5.3,   -5.1,   -5.1,   -5.0,   -4.8,   -4.6,   -4.3,   -4.2,   -3.9,   -3.7,   -3.7,   -3.6,   -3.5,   -3.5,   -3.5,   -3.4,   -3.3,   -3.3,   -3.2,   -3.2,   -3.1,   -3.0,   -2.9,   -2.8,   -2.8,   -2.6,   -2.5,   -2.4,   -2.3,   -2.1,   -1.9,   -1.9,   -1.9,   -1.8,   -1.8,   -1.7,   -1.6
2011/09/03 13:50,   -0.0,    0.0,   -0.0,    0.0,   -0.0,   -0.0,   -0.0,   -0.1,   -0.0,    0.1,   -0.0,   -0.1,   -0.0,   -0.4,   -0.2,   -0.1,    0.0,  999.0,   -9.0,   -9.1,   -9.1,   -9.2,   -9.4,   -9.4,   -9.6,   -9.7,   -9.4,   -9.5,   -9.4,   -9.4,   -9.3,   -9.3,   -9.4,   -9.3,   -9.3,   -9.3,   -8.7,   -7.9,   -7.1,   -6.4,   -6.0,   -5.7,   -5.5,   -5.3,   -5.1,   -5.1,   -4.9,   -4.9,   -4.9,   -4.8,   -4.7,   -4.4,   -4.2,   -4.1,   -3.9,   -3.7,   -3.5,   -3.4,   -3.4,   -3.3,   -3.3,   -3.3,   -3.3,   -3.2,   -3.1,   -2.9,   -2.8,   -2.6,   -2.4,   -2.2,   -2.0,   -1.8,   -1.6,   -1.4,   -1.3,   -1.2,   -1.2,   -1.2,   -1.2,   -1.1
2011/09/03 14:00,    0.0,    0.0,    0.0,    0.0,   -0.1,   -0.6,   -0.3,   -0.0,   -0.1,   -0.3,   -0.2,   -0.1,   -0.1,    0.0,  999.0,  999.0,  999.0,  999.0,  999.0,   -9.3,   -9.4,   -9.5,   -9.6,   -9.6,   -9.7,   -9.8,   -9.8,   -9.7,   -9.7,   -9.8,   -9.9,   -9.8,   -9.6,   -9.8,   -9.5,   -9.4,   -8.7,   -8.0,   -7.6,   -7.2,   -6.8,   -6.5,   -6.3,   -6.1,   -5.8,   -5.6,   -5.4,   -5.1,   -5.0,   -5.2,   -5.1,   -5.1,   -5.0,   -4.7,   -4.6,   -4.4,   -4.3,   -4.2,   -4.1,   -3.9,   -3.8,   -3.7,   -3.5,   -3.4,   -3.2,   -3.0,   -2.8,   -2.6,   -2.4,   -2.3,   -2.1,   -2.0,   -1.9,   -1.7,   -1.6,   -1.7,   -1.6,   -1.5,   -1.5,   -1.3
2011/09/03 14:10,   -0.0,    0.0,    0.0,   -0.0,   -0.1,   -0.3,   -0.5,   -0.6,   -0.2,   -0.1,   -0.1,   -0.1,   -0.0,   -0.2,   -0.3,   -0.1,   -0.1,   -0.2,   -0.1,    0.0,  999.0,  999.0,  999.0,  999.0,   -8.8,   -8.8,   -8.5,   -8.7,   -8.7,   -8.9,   -9.1,   -9.3,   -9.3,   -9.5,   -9.6,   -9.4,   -9.2,   -8.3,   -7.5,   -6.8,   -6.2,   -5.8,   -5.6,   -5.5,   -5.4,   -5.3,   -5.2,   -5.1,   -4.9,   -5.0,   -5.0,   -5.0,   -4.9,   -4.8,   -4.6,   -4.4,   -4.1,   -4.1,   -4.1,   -4.0,   -3.9,   -3.8,   -3.7,   -3.4,   -3.3,   -3.1,   -2.9,   -2.7,   -2.5,   -2.3,   -2.2,   -2.1,   -1.8,   -1.7,   -1.6,   -1.4,   -1.4,   -1.3,   -1.3,   -1.3
2011/09/03 14:20,  999.0,    0.0,    0.0,   -0.0,   -0.1,   -0.5,   -0.8,   -0.6,   -0.6,   -0.3,   -0.1,   -0.1,   -0.2,   -0.4,   -0.2,   -0.1,   -0.2,   -0.1,   -0.1,   -0.0,   -0.0,   -0.0,   -0.0,   -0.1,   -0.0,  999.0,  999.0,  999.0,   -9.0,   -9.1,   -9.1,   -9.1,   -9.4,   -9.3,   -9.2,   -9.4,   -9.1,   -8.4,   -7.5,   -6.7,   -6.1,   -5.7,   -5.3,   -5.2,   -5.1,   -5.0,   -5.0,   -5.0,   -4.9,   -4.8,   -4.7,   -4.7,   -4.6,   -4.7,   -4.7,   -4.4,   -4.4,   -4.2,   -4.1,   -4.0,   -4.0,   -4.0,   -3.9,   -3.8,   -3.6,   -3.5,   -3.3,   -3.0,   -2.8,   -2.6,   -2.4,   -2.2,   -2.1,   -1.9,   -1.9,   -1.8,   -1.7,   -1.6,   -1.5,   -1.4
2011/09/03 14:30,  999.0,    0.0,   -0.0,   -0.0,   -0.1,   -0.4,   -0.1,   -0.3,   -0.2,   -0.3,   -0.2,   -0.0,   -0.1,    0.1,    0.2,    0.1,    0.0,   -0.1,   -0.0,   -0.0,   -0.0,    0.0,    0.0,    0.0,   -0.0,   -0.0,  999.0,  999.0,  999.0,  999.0,   -8.6,   -8.6,   -8.5,   -8.6,   -8.9,   -8.5,   -8.5,   -8.2,   -7.4,   -6.7,   -6.1,   -5.6,   -5.3,   -5.2,   -5.1,   -5.2,   -5.1,   -4.9,   -5.0,   -4.7,   -4.6,   -4.5,   -4.5,   -4.6,   -4.3,   -4.2,   -4.1,   -3.9,   -3.7,   -3.5,   -3.4,   -3.4,   -3.4,   -3.3,   -3.3,   -3.3,   -3.1,   -2.9,   -2.7,   -2.7,   -2.4,   -2.2,   -2.0,   -1.9,   -1.7,   -1.7,   -1.7,   -1.6,   -1.5,   -1.4
2011/09/03 14:40,    0.0,   -0.0,    0.0,   -0.0,   -0.1,    0.2,   -0.3,   -0.2,   -0.2,    0.1,   -0.1,   -0.3,   -0.4,   -0.5,   -0.4,   -0.2,   -0.1,   -0.2,   -0.2,   -0.1,  999.0,   -3.8,   -4.1,   -4.3,   -4.2,   -7.0,   -8.6,   -8.5,   -8.6,   -8.8,   -8.6,   -8.7,   -8.5,   -8.8,   -8.8,   -8.8,   -8.6,   -8.4,   -7.7,   -7.0,   -6.2,   -5.8,   -5.4,   -5.1,   -4.9,   -4.9,   -4.8,   -4.7,   -4.6,   -4.5,   -4.4,   -4.4,   -4.4,   -4.1,   -4.1,   -4.0,   -3.8,   -3.7,   -3.6,   -3.6,   -3.5,   -3.5,   -3.4,   -3.3,   -3.1,   -2.9,   -2.8,   -2.7,   -2.6,   -2.4,   -2.2,   -1.9,   -1.7,   -1.6,   -1.5,   -1.4,   -1.4,   -1.4,   -1.4,   -1.5
2011/09/03 14:50,  999.0,   -0.0,    0.0,   -0.0,   -0.0,   -0.3,   -0.5,   -0.5,   -0.1,    0.0,   -0.1,   -0.3,   -0.4,   -0.5,   -0.5,   -0.8,   -0.8,   -4.3,  999.0,   -8.3,   -8.4,   -7.6,   -7.9,   -7.8,   -7.7,   -7.8,   -7.9,   -8.0,   -8.0,   -8.0,   -8.2,   -8.3,   -8.3,   -8.5,   -8.6,   -8.6,   -8.6,   -8.1,   -7.8,   -7.0,   -6.2,   -5.4,   -4.9,   -4.6,   -4.3,   -4.2,   -4.1,   -4.0,   -3.9,   -3.8,   -3.6,   -3.5,   -3.3,   -3.1,   -3.2,   -3.0,   -3.0,   -2.9,   -2.8,   -2.7,   -2.6,   -2.5,   -2.4,   -2.2,   -2.0,   -1.9,   -1.7,   -1.6,   -1.5,   -1.4,   -1.2,   -1.2,   -1.0,   -1.0,   -0.9,   -0.9,   -0.9,   -1.0,   -0.9,   -1.0
2011/09/03 15:00,  999.0,    0.0,    0.0,   -0.0,   -0.1,   -0.5,    0.4,   -0.1,   -0.2,   -1.9,   -3.8,   -4.7,   -5.4,   -3.9,   -4.7,   -7.8,   -7.4,   -7.9,   -8.0,   -7.6,   -7.7,   -7.4,   -7.5,   -7.5,   -7.4,   -7.6,   -7.7,   -7.8,   -8.0,   -8.0,   -8.1,   -8.3,   -8.2,   -8.2,   -8.2,   -8.3,   -8.3,   -8.3,   -7.8,   -7.4,   -6.7,   -5.8,   -5.0,   -4.9,   -4.7,   -4.3,   -4.4,   -4.3,   -4.3,   -4.3,   -4.2,   -4.0,   -4.0,   -3.8,   -3.8,   -3.6,   -3.5,   -3.4,   -3.3,   -3.2,   -3.0,   -2.8,   -2.7,   -2.5,   -2.3,   -2.0,   -1.9,   -1.7,   -1.4,   -1.2,   -1.1,   -1.1,   -1.0,   -1.0,   -0.9,   -0.8,   -0.9,   -0.8,   -0.8,   -0.8
2011/09/03 15:10,  999.0,   -0.0,    0.0,    0.0,   -0.2,   -0.4,   -0.5,   -3.0,   -3.0,   -4.3,   -0.2,   -4.1,   -4.9,   -4.9,   -5.0,   -6.2,   -6.1,   -6.3,   -4.6,  999.0,  999.0,  999.0,  999.0,  999.0,  999.0,  999.0,  999.0,  999.0,  999.0,  999.0,  999.0,  999.0,   -9.2,   -9.4,   -9.2,   -9.3,   -9.0,   -8.6,   -8.1,   -7.3,   -6.7,   -6.4,   -6.2,   -5.8,   -5.6,   -5.5,   -5.4,   -5.2,   -5.1,   -4.9,   -4.9,   -4.5,   -4.4,   -4.1,   -4.0,   -3.8,   -3.7,   -3.6,   -3.6,   -3.5,   -3.3,   -3.1,   -3.1,   -2.9,   -2.8,   -2.7,   -2.5,   -2.2,   -2.1,   -1.8,   -1.7,   -1.5,   -1.3,   -1.2,   -1.1,   -1.0,   -1.0,   -1.0,   -0.9,   -0.9
2011/09/03 15:20,   -0.0,    0.0,   -0.0,   -0.0,   -0.1,   -0.5,   -0.3,   -0.3,   -0.3,   -0.3,   -0.1,   -0.5,   -0.3,   -0.1,   -0.3,   -0.2,   -0.3,   -0.5,   -0.5,   -0.2,   -0.1,   -0.0,   -0.0,   -0.0,   -0.0,   -0.0,   -0.0,  999.0,  999.0,  999.0,  999.0,  999.0,   -7.6,   -7.7,   -8.0,   -8.1,   -8.1,   -7.9,   -7.4,   -6.8,   -6.2,   -5.8,   -5.5,   -5.1,   -4.9,   -4.6,   -4.4,   -4.5,   -4.4,   -4.3,   -4.1,   -4.1,   -4.0,   -4.0,   -3.9,   -3.8,   -3.7,   -3.5,   -3.4,   -3.3,   -3.2,   -3.1,   -2.9,   -2.8,   -2.6,   -2.5,   -2.4,   -2.3,   -2.3,   -2.1,   -2.0,   -1.9,   -1.7,   -1.5,   -1.3,   -1.3,   -1.2,   -1.2,   -1.3,   -1.2
2011/09/03 15:30,  999.0,   -0.0,   -0.0,    0.0,   -0.1,   -0.3,   -0.2,   -0.2,   -0.1,   -0.1,   -0.1,   -0.1,   -0.2,   -0.1,   -0.5,   -0.7,   -0.7,   -0.8,   -0.7,   -4.7,   -4.4,   -3.6,   -3.5,   -3.5,   -4.4,   -5.2,   -6.5,   -8.8,   -8.9,   -8.8,   -8.7,   -8.8,   -8.6,   -8.8,   -9.0,   -9.2,   -8.9,   -8.5,   -7.9,   -7.2,   -6.6,   -6.1,   -5.6,   -5.5,   -5.3,   -5.1,   -5.0,   -4.7,   -4.6,   -4.4,   -4.5,   -4.4,   -4.4,   -4.5,   -4.4,   -4.3,   -4.3,   -4.1,   -4.0,   -3.9,   -3.7,   -3.8,   -3.4,   -3.2,   -3.0,   -2.8,   -2.6,   -2.5,   -2.4,   -2.3,   -2.1,   -2.0,   -1.9,   -2.0,   -1.9,   -1.9,   -1.8,   -1.9,   -2.0,   -2.0
2011/09/03 15:40,  999.0,  999.0,   -6.8,   -6.7,   -6.6,   -6.5,   -7.6,   -7.3,   -7.1,   -7.2,   -7.4,   -6.7,   -7.0,   -8.7,   -8.6,   -8.5,   -8.5,   -8.8,   -8.7,   -8.9,   -9.0,   -9.1,   -9.0,   -9.0,   -8.9,   -8.8,   -8.8,   -8.9,   -8.8,   -8.9,   -8.7,   -8.6,   -8.6,   -8.7,   -8.7,   -8.8,   -8.6,   -8.0,   -7.3,   -6.7,   -6.2,   -5.8,   -5.5,   -5.3,   -5.1,   -5.1,   -5.0,   -5.0,   -4.7,   -4.5,   -4.3,   -4.3,   -4.2,   -4.1,   -4.0,   -3.8,   -3.8,   -3.8,   -3.5,   -3.4,   -3.5,   -3.3,   -3.2,   -3.1,   -2.8,   -2.6,   -2.4,   -2.2,   -2.0,   -1.9,   -1.6,   -1.5,   -1.3,   -1.1,   -0.9,   -0.8,   -0.7,   -0.7,   -0.7,   -0.8
2011/09/03 15:50,  999.0,  999.0,   -9.0,   -8.0,   -7.8,   -8.3,   -8.2,   -8.5,   -8.0,   -8.3,   -8.3,   -8.7,   -8.8,   -8.7,   -8.8,   -8.9,   -8.9,   -9.2,   -9.0,   -9.0,   -9.1,   -9.1,   -9.1,   -9.1,   -9.1,   -9.1,   -8.9,   -9.0,   -8.9,   -8.8,   -8.8,   -8.8,   -8.8,   -8.8,   -8.9,   -9.0,   -8.8,   -8.1,   -7.3,   -6.8,   -6.1,   -5.8,   -5.4,   -5.1,   -4.7,   -4.6,   -4.6,   -4.4,   -4.2,   -4.0,   -4.1,   -4.0,   -4.0,   -3.9,   -3.8,   -4.0,   -4.0,   -3.7,   -3.9,   -3.8,   -3.6,   -3.4,   -3.4,   -3.2,   -3.0,   -3.0,   -2.6,   -2.5,   -2.3,   -2.2,   -2.0,   -1.8,   -1.6,   -1.4,   -1.3,   -1.3,   -1.2,   -1.2,   -1.3,   -1.3
2011/09/03 16:00,  999.0,   -0.0,    0.0,   -0.0,   -0.0,   -0.5,   -0.3,   -0.7,   -1.0,   -0.9,   -2.4,   -4.9,   -3.3,   -3.9,   -4.1,   -4.2,   -4.4,   -4.3,   -3.0,   -2.9,   -2.8,   -2.8,   -2.9,   -4.4,   -4.4,   -4.4,   -4.3,   -4.4,   -8.5,   -8.7,   -8.6,   -8.7,   -8.7,   -8.8,   -8.9,   -9.0,   -8.7,   -8.0,   -7.2,   -6.6,   -6.0,   -5.6,   -5.3,   -5.0,   -4.8,   -4.8,   -4.6,   -4.5,   -4.5,   -4.4,   -4.2,   -4.0,   -3.8,   -3.7,   -3.5,   -3.4,   -3.3,   -3.2,   -3.0,   -3.0,   -2.8,   -2.7,   -2.7,   -2.7,   -2.5,   -2.4,   -2.2,   -2.1,   -2.0,   -1.8,   -1.6,   -1.5,   -1.3,   -1.2,   -1.1,   -1.0,   -1.0,   -0.8,   -0.8,   -0.8
2011/09/03 16:10,    0.0,    0.0,   -0.0,    0.0,   -0.1,   -0.4,   -0.9,   -0.4,   -1.0,   -0.1,   -0.5,   -0.2,   -0.5,   -0.5,   -0.4,   -0.4,   -0.4,   -0.2,   -0.4,   -0.1,   -0.0,   -0.0,   -0.0,   -0.1,   -3.0,   -3.0,   -3.0,   -4.2,   -8.4,   -8.6,   -8.8,   -8.9,   -8.9,   -9.0,   -9.0,   -9.0,   -8.8,   -8.5,   -8.1,   -6.8,   -6.1,   -5.3,   -4.8,   -4.5,   -4.2,   -4.0,   -3.8,   -3.7,   -3.5,   -3.5,   -3.3,   -3.1,   -2.9,   -2.7,   -2.5,   -2.4,   -2.2,   -2.1,   -2.0,   -1.9,   -1.8,   -1.7,   -1.7,   -1.6,   -1.6,   -1.6,   -1.5,   -1.5,   -1.5,   -1.4,   -1.4,   -1.3,   -1.3,   -1.3,   -1.3,   -1.3,   -1.4,   -1.4,   -1.4,   -1.4
2011/09/03 16:20,   -0.0,    0.0,   -0.0,   -0.0,   -0.2,   -0.7,   -0.9,   -0.7,   -0.4,   -0.7,   -1.4,   -1.3,   -1.4,   -1.6,   -1.5,   -1.0,   -1.2,   -0.1,   -3.0,   -2.6,   -0.0,   -1.5,  999.0,  999.0,   -7.0,   -7.7,  999.0,   -7.7,   -7.7,   -8.1,   -8.3,   -8.4,   -8.4,   -8.5,   -8.6,   -8.6,   -8.7,   -8.7,   -8.7,   -7.8,   -6.8,   -5.8,   -5.1,   -4.4,   -4.2,   -3.9,   -3.7,   -3.6,   -3.6,   -3.6,   -3.4,   -3.3,   -3.1,   -2.9,   -2.8,   -2.6,   -2.5,   -2.4,   -2.3,   -2.2,   -2.0,   -2.0,   -1.9,   -1.8,   -1.7,   -1.7,   -1.7,   -1.6,   -1.5,   -1.5,   -1.4,   -1.4,   -1.4,   -1.2,   -1.1,   -1.1,   -1.1,   -1.1,   -1.2,   -1.2
2011/09/03 16:30,  999.0,    0.0,   -0.0,   -0.0,   -0.0,   -0.2,   -0.1,   -2.7,   -3.8,   -4.3,   -4.3,   -4.3,   -4.0,   -4.3,   -4.4,   -4.1,   -4.1,   -4.0,   -4.0,   -4.0,   -3.9,   -3.7,   -4.9,   -4.6,   -4.9,   -5.8,   -6.2,   -6.2,   -6.3,   -8.2,   -8.7,   -8.8,   -8.1,   -8.5,   -8.5,   -8.6,   -8.6,   -8.5,   -8.6,   -8.2,   -7.5,   -6.5,   -5.6,   -4.9,   -4.4,   -4.0,   -3.9,   -3.9,   -3.8,   -3.7,   -3.5,   -3.4,   -3.2,   -3.2,   -3.1,   -2.9,   -2.8,   -2.7,   -2.6,   -2.5,   -2.4,   -2.3,   -2.1,   -2.1,   -1.9,   -1.8,   -1.7,   -1.6,   -1.5,   -1.4,   -1.3,   -1.3,   -1.3,   -1.3,   -1.2,   -1.2,   -1.2,   -1.2,   -1.2,   -1.1
2011/09/03 16:40,  999.0,   -5.4,   -5.5,   -5.4,   -5.3,   -5.4,   -5.2,   -5.4,   -5.2,   -5.5,   -5.5,   -5.3,   -5.3,   -5.2,   -5.2,   -5.0,   -4.9,   -4.9,   -4.9,   -5.0,   -4.9,   -4.6,  999.0,  999.0,   -6.5,   -7.0,   -7.6,   -7.9,   -8.1,   -8.2,   -8.0,   -9.1,   -8.4,   -8.3,   -8.5,   -8.0,   -7.9,   -7.7,   -7.6,   -7.2,   -7.6,   -6.5,   -6.1,   -5.3,   -4.6,   -4.1,   -3.9,   -3.7,   -3.5,   -3.3,   -3.2,   -3.0,   -2.9,   -2.8,   -2.7,   -2.6,   -2.5,   -2.5,   -2.3,   -2.3,   -2.1,   -2.0,   -2.0,   -2.0,   -1.9,   -1.8,   -1.7,   -1.6,   -1.5,   -1.5,   -1.5,   -1.4,   -1.3,   -1.3,   -1.2,   -1.2,   -1.2,   -1.2,   -1.2,   -1.2
2011/09/03 16:50,  999.0,  999.0,   -4.2,   -4.1,   -4.2,   -4.2,   -4.4,   -4.1,   -4.1,   -4.2,   -4.0,   -4.0,   -4.3,   -4.0,   -4.2,   -4.1,   -4.1,   -4.0,  999.0,  999.0,  999.0,  999.0,  999.0,  999.0,  999.0,  999.0,   -9.3,   -9.2,   -9.3,   -9.5,   -9.6,   -9.4,   -9.4,   -9.3,   -9.3,   -9.3,   -9.4,   -9.3,   -9.0,   -8.2,   -7.5,   -6.8,   -6.1,   -5.5,   -5.1,   -4.8,   -4.5,   -4.4,   -4.3,   -4.2,   -4.0,   -3.8,   -3.6,   -3.5,   -3.4,   -3.1,   -3.0,   -2.9,   -2.7,   -2.7,   -2.6,   -2.5,   -2.4,   -2.3,   -2.1,   -2.0,   -1.9,   -1.8,   -1.7,   -1.5,   -1.5,   -1.4,   -1.3,   -1.2,   -1.0,   -1.1,   -1.0,   -1.1,   -1.0,   -1.1
2011/09/03 17:00,  999.0,   -0.0,   -1.2,   -1.6,   -1.8,   -2.3,   -2.2,   -2.5,   -2.0,   -2.1,   -1.8,   -1.9,   -1.2,   -1.4,   -1.6,   -1.1,   -1.0,   -1.0,   -1.0,   -0.5,    0.0,   -0.1,   -0.2,  999.0,  999.0,  999.0,  999.0,   -9.2,   -9.0,   -9.2,   -9.3,   -9.3,   -9.3,   -8.9,   -9.1,   -8.9,   -9.1,   -9.3,   -8.7,   -8.0,   -7.4,   -6.7,   -6.0,   -5.4,   -4.8,   -4.4,   -4.3,   -4.3,   -4.2,   -4.1,   -4.0,   -3.8,   -3.7,   -3.6,   -3.5,   -3.3,   -3.2,   -3.1,   -2.9,   -2.9,   -2.8,   -2.6,   -2.6,   -2.5,   -2.4,   -2.2,   -2.2,   -2.0,   -2.0,   -1.9,   -1.8,   -1.6,   -1.6,   -1.5,   -1.5,   -1.4,   -1.4,   -1.4,   -1.4,   -1.5
2011/09/03 17:10,  999.0,   -3.8,   -4.1,   -3.8,   -4.0,   -3.9,   -3.7,   -4.1,   -4.0,   -4.0,   -3.9,   -4.1,   -3.7,   -3.5,   -3.5,   -3.7,   -3.4,   -3.4,   -3.5,   -3.4,   -3.2,   -3.2,   -3.3,  999.0,  999.0,   -5.4,   -7.8,   -7.6,   -7.2,   -7.8,   -7.0,   -7.6,   -6.6,   -6.7,   -7.5,   -7.4,   -7.3,   -7.2,   -5.4,   -6.6,   -6.7,   -6.5,   -5.8,   -5.2,   -4.5,   -4.0,   -4.0,   -4.0,   -3.9,   -3.9,   -3.9,   -3.7,   -3.7,   -3.6,   -3.4,   -3.3,   -3.2,   -3.2,   -3.0,   -2.9,   -2.7,   -2.7,   -2.5,   -2.4,   -2.3,   -2.2,   -2.0,   -1.9,   -1.8,   -1.6,   -1.4,   -1.3,   -1.2,   -1.1,   -1.1,   -0.9,   -0.9,   -1.0,   -1.0,   -0.9
2011/09/03 17:20,  999.0,   -4.2,   -4.2,   -4.1,   -4.1,   -3.7,   -4.1,   -3.8,   -3.8,   -3.6,   -3.7,   -3.6,   -3.6,   -3.5,   -3.6,   -3.3,   -3.4,   -3.4,   -3.3,   -3.1,   -3.1,   -3.1,   -3.1,   -3.4,   -3.3,   -3.9,   -3.8,   -3.9,   -3.8,   -3.4,   -3.0,   -3.3,   -3.8,   -3.5,   -6.0,   -6.1,   -5.7,   -5.5,   -5.5,   -6.1,   -6.1,   -5.8,   -5.5,   -4.4,  999.0,   -2.6,   -2.2,   -2.3,   -2.2,   -2.3,   -2.4,   -2.6,   -2.8,   -2.8,   -2.8,   -2.8,   -2.7,   -2.6,   -2.5,   -2.4,   -2.3,   -2.1,   -2.2,   -2.1,   -2.1,   -2.1,   -2.0,   -2.0,   -1.9,   -1.7,   -1.6,   -1.5,   -1.4,   -1.3,   -1.3,   -1.3,   -1.2,   -1.2,   -1.1,   -1.0
2011/09/03 17:30,  999.0,   -4.3,   -4.1,   -3.0,   -3.1,   -3.6,   -3.2,   -2.7,   -2.6,   -2.5,   -2.3,   -2.4,   -2.5,   -2.5,   -2.5,   -2.2,   -2.3,   -2.5,   -2.5,   -2.6,   -2.5,   -2.0,   -1.6,   -1.5,   -1.4,   -0.8,    0.0,   -0.8,   -2.2,   -2.2,   -1.2,   -5.4,   -5.6,  999.0,   -5.6,   -5.5,   -5.6,   -5.6,   -5.5,   -5.4,   -5.4,   -5.3,   -5.1,   -4.4,   -3.4,   -2.6,   -2.4,   -2.3,   -2.2,   -2.3,   -2.5,   -2.4,   -2.5,   -3.0,   -3.1,   -3.2,   -3.0,   -2.8,   -2.8,   -2.6,   -2.5,   -2.4,   -2.4,   -2.3,   -2.2,   -2.2,   -2.1,   -2.0,   -1.9,   -1.9,   -1.8,   -1.8,   -1.7,   -1.6,   -1.5,   -1.4,   -1.4,   -1.4,   -1.4,   -1.3
2011/09/03 17:40,  999.0,  999.0,   -3.6,   -3.8,   -4.2,   -3.6,   -5.1,   -5.2,   -5.3,   -5.2,   -5.7,   -6.0,   -5.9,   -6.0,   -7.4,   -7.1,   -7.0,   -6.9,   -6.8,   -6.8,   -6.8,   -6.8,   -7.1,   -7.2,   -7.1,   -7.0,   -6.9,   -6.8,   -7.7,   -7.6,   -7.6,   -7.4,   -7.4,   -7.2,   -7.1,   -7.0,   -7.0,   -7.1,   -6.9,   -7.1,   -6.8,   -6.5,   -5.5,   -4.0,   -3.2,   -2.8,   -2.8,   -2.8,   -2.6,   -2.8,   -2.7,   -2.6,   -2.6,   -2.6,   -2.6,   -2.7,   -2.7,   -2.8,   -2.7,   -2.6,   -2.5,   -2.4,   -2.3,   -2.2,   -2.1,   -2.1,   -1.9,   -1.9,   -1.8,   -1.7,   -1.6,   -1.6,   -1.5,   -1.5,   -1.4,   -1.4,   -1.3,   -1.3,   -1.3,   -1.2
2011/09/03 17:50,   -5.3,   -5.3,   -5.0,   -4.9,   -5.0,   -4.8,   -5.0,   -4.8,   -4.7,   -4.3,   -4.3,   -4.2,   -4.3,   -4.3,   -4.5,   -4.3,   -3.8,   -4.2,   -5.6,   -5.7,   -7.2,   -8.1,   -7.5,   -6.9,   -7.1,   -7.2,   -6.9,   -6.8,   -7.1,   -7.2,   -7.4,   -7.3,   -7.1,   -7.1,   -7.3,   -6.5,   -6.5,   -6.3,   -6.2,   -5.9,   -6.0,   -5.5,   -4.7,   -4.0,   -3.4,   -3.3,   -3.3,   -3.1,   -3.2,   -3.4,   -3.4,   -3.3,   -3.4,   -3.4,   -3.4,   -3.4,   -3.3,   -3.2,   -3.1,   -3.0,   -2.9,   -2.8,   -2.7,   -2.6,   -2.4,   -2.3,   -2.2,   -2.1,   -2.1,   -2.0,   -1.9,   -1.8,   -1.7,   -1.6,   -1.6,   -1.4,   -1.4,   -1.3,   -1.2,   -1.1
2011/09/03 18:00,  999.0,  999.0,   -4.6,  999.0,   -4.8,  999.0,   -4.8,   -4.8,  999.0,   -7.0,   -6.7,   -7.4,   -7.6,   -8.6,   -8.0,   -6.6,   -6.9,   -6.9,   -8.3,   -7.9,   -7.9,   -8.0,   -8.2,   -8.1,   -8.2,   -8.2,   -7.9,   -8.1,   -7.9,   -8.1,   -8.2,   -8.2,   -8.1,   -8.3,   -8.2,   -8.1,   -8.0,   -7.9,   -7.8,   -7.8,   -7.4,   -6.9,   -5.4,  999.0,   -3.7,   -3.1,   -3.3,   -3.2,   -3.1,   -3.0,   -2.9,   -2.8,   -2.7,   -2.7,   -2.8,   -2.8,   -3.2,   -3.3,   -3.3,   -3.1,   -3.1,   -3.1,   -2.9,   -2.8,   -2.7,   -2.6,   -2.4,   -2.4,   -2.2,   -2.1,   -2.0,   -2.0,   -2.0,   -1.9,   -1.7,   -1.7,   -1.7,   -1.6,   -1.7,   -1.6
2011/09/03 18:10,    0.0,  999.0,   -0.0,   -0.3,   -0.8,   -1.6,   -1.9,   -1.5,   -1.2,   -1.4,   -0.5,   -1.0,   -0.8,   -0.9,   -0.5,   -0.5,   -0.6,   -0.6,   -0.6,   -0.3,   -0.0,   -0.0,   -2.2,   -0.0,   -4.0,   -4.0,   -4.7,   -4.7,   -4.5,   -4.6,   -4.6,   -4.6,   -5.8,   -5.8,   -5.8,   -7.5,   -7.5,   -6.5,   -6.2,   -5.7,   -6.1,   -5.7,   -5.0,   -4.0,   -3.0,   -2.6,   -2.5,   -2.5,   -2.4,   -2.4,   -2.3,   -2.2,   -2.1,   -2.1,   -2.1,   -2.4,   -3.0,   -3.2,   -3.2,   -3.1,   -2.9,   -2.8,   -2.8,   -2.6,   -2.5,   -2.4,   -2.3,   -2.2,   -2.2,   -2.1,   -2.0,   -2.0,   -2.0,   -1.9,   -1.8,   -1.8,   -1.8,   -1.8,   -1.8,   -1.7
2011/09/03 18:20,    0.0,   -0.0,   -0.0,   -0.0,   -0.5,   -0.9,   -0.8,   -0.9,   -0.9,   -0.9,   -0.4,   -0.4,   -0.3,   -0.3,   -0.5,   -0.3,    0.0,   -0.1,   -0.3,   -0.1,   -0.0,   -0.0,   -0.0,   -0.0,   -0.0,   -0.0,   -0.0,   -0.0,   -0.0,   -0.0,    0.0,   -0.0,   -0.0,   -0.1,   -0.6,   -1.3,   -1.5,  999.0,   -3.4,   -4.8,   -5.8,   -5.7,   -5.3,   -4.4,   -3.7,   -3.5,   -3.6,   -3.3,   -3.5,   -3.6,   -3.5,   -3.2,   -3.0,   -3.3,   -3.5,   -3.7,   -3.8,   -3.8,   -3.7,   -3.5,   -3.4,   -3.2,   -3.0,   -2.9,   -2.8,   -2.7,   -2.6,   -2.5,   -2.3,   -2.2,   -2.1,   -2.1,   -2.0,   -1.9,   -1.7,   -1.7,   -1.6,   -1.5,   -1.5,   -1.6
2011/09/03 18:30,    0.0,    0.0,    0.0,   -0.1,   -0.3,   -0.9,   -0.9,   -0.6,   -1.0,   -1.2,   -0.5,   -0.4,   -0.4,   -0.6,   -0.6,   -0.7,   -0.8,   -0.4,   -0.2,   -0.1,   -0.1,   -0.0,   -0.0,   -0.0,   -0.0,    0.0,   -0.0,    0.0,    0.0,    0.0,    0.0,    0.0,    0.0,   -0.0,   -3.0,   -4.4,   -5.1,   -4.8,   -5.0,   -5.5,   -6.2,   -5.9,   -5.4,   -4.2,   -3.8,   -3.8,   -3.7,   -3.8,   -3.9,   -3.8,   -3.8,   -3.6,   -3.6,   -3.9,   -3.7,   -3.4,   -3.0,   -2.8,   -2.8,   -3.0,   -2.9,   -2.9,   -2.7,   -2.6,   -2.4,   -2.2,   -2.1,   -2.0,   -1.9,   -1.8,   -1.7,   -1.6,   -1.6,   -1.5,   -1.5,   -1.6,   -1.5,   -1.5,   -1.5,   -1.5
2011/09/03 18:40,  999.0,    0.0,    0.0,   -0.0,   -0.2,   -0.7,   -1.6,   -1.0,   -1.4,   -1.0,   -0.7,   -0.7,   -0.8,   -0.3,   -0.5,   -0.5,   -0.6,   -0.5,   -0.3,   -0.0,   -0.0,   -0.0,    0.0,   -1.1,   -2.2,   -3.3,   -4.3,   -3.2,   -4.3,   -4.3,   -5.2,   -8.7,   -8.5,   -8.5,   -8.3,   -7.8,   -7.6,   -7.8,   -7.7,   -7.3,   -7.1,   -6.7,   -6.3,   -5.8,   -5.3,   -5.1,   -5.0,   -5.1,   -4.9,   -4.9,   -4.7,   -4.6,   -4.4,   -4.3,   -4.2,   -4.0,   -3.9,   -3.8,   -3.7,   -3.5,   -3.3,   -3.1,   -2.9,   -2.7,   -2.5,   -2.3,   -2.1,   -2.0,   -1.8,   -1.5,   -1.4,   -1.3,   -1.2,   -1.2,   -1.1,   -1.1,   -1.0,   -1.1,   -1.1,   -1.2
2011/09/03 18:50,  999.0,  999.0,    0.0,   -0.1,   -0.4,   -0.8,   -0.9,   -0.8,   -1.4,   -1.0,   -0.4,   -0.6,   -0.5,   -0.5,   -0.3,   -0.5,   -0.3,   -0.4,   -0.7,   -0.0,    0.0,   -3.3,   -4.3,   -6.1,   -6.6,   -6.6,   -5.8,   -5.8,   -5.8,   -7.7,   -7.7,   -7.8,   -7.9,   -7.8,   -7.8,   -7.7,   -7.4,   -7.3,   -7.5,   -7.3,   -6.9,   -6.5,   -6.1,   -5.6,   -5.0,   -4.7,   -4.5,   -4.5,   -4.3,   -4.3,   -4.1,   -4.0,   -3.9,   -3.7,   -3.6,   -3.5,   -3.4,   -3.3,   -3.3,   -3.1,   -2.9,   -2.8,   -2.8,   -2.6,   -2.5,   -2.3,   -2.2,   -2.1,   -1.9,   -1.9,   -1.7,   -1.7,   -1.6,   -1.5,   -1.4,   -1.3,   -1.1,   -1.1,   -1.1,   -1.1
2011/09/03 19:00,   -0.0,   -0.0,   -0.0,   -0.2,   -0.4,   -0.9,   -1.2,   -2.7,   -2.1,   -2.5,   -2.4,   -1.4,   -6.3,   -5.7,   -7.4,   -9.6,   -9.7,   -9.9,  999.0,   -9.8,   -9.7,  999.0,   -9.9,  999.0,  999.0,  999.0,  999.0,  999.0,  999.0,  999.0,  999.0,  999.0,  999.0,  999.0,  999.0,  999.0,   -9.8,   -9.3,   -8.3,   -7.8,   -7.3,   -6.7,   -6.2,   -5.8,   -5.3,   -5.1,   -5.0,   -4.8,   -4.7,   -4.5,   -4.4,   -4.2,   -4.0,   -4.0,   -3.8,   -3.7,   -3.6,   -3.4,   -3.3,   -3.2,   -3.0,   -2.9,   -2.8,   -2.7,   -2.5,   -2.4,   -2.3,   -2.2,   -2.0,   -1.8,   -1.7,   -1.6,   -1.5,   -1.4,   -1.3,   -1.3,   -1.3,   -1.4,   -1.3,   -1.3
2011/09/03 19:10,  999.0,    0.0,   -0.0,   -0.1,   -0.4,   -1.0,   -1.1,   -1.3,   -1.4,   -0.8,   -0.4,   -0.9,   -3.1,   -5.7,   -5.7,   -3.3,  999.0,   -5.9,   -4.4,   -5.9,   -6.0,   -6.0,   -6.0,   -6.0,   -6.1,   -6.1,   -6.2,   -6.1,   -9.3,   -9.3,   -9.3,   -9.1,   -9.0,   -9.0,   -9.0,   -8.8,   -8.6,   -8.8,   -8.8,   -8.1,   -7.3,   -6.3,   -5.4,   -4.7,   -4.2,   -4.1,   -4.0,   -3.9,   -3.7,   -3.6,   -3.5,   -3.5,   -3.3,   -3.2,   -3.1,   -2.9,   -2.8,   -2.7,   -2.7,   -2.6,   -2.5,   -2.5,   -2.5,   -2.4,   -2.3,   -2.2,   -2.1,   -2.0,   -1.9,   -1.8,   -1.7,   -1.6,   -1.4,   -1.3,   -1.1,   -1.1,   -1.1,   -1.1,   -1.1,   -1.2
2011/09/03 19:20,   -0.0,    0.0,   -0.0,   -0.0,   -0.2,   -0.4,   -0.7,   -0.5,   -0.5,   -0.5,   -0.2,   -0.5,   -1.0,   -1.2,   -0.6,   -0.4,   -0.3,   -0.1,   -0.1,    0.0,    0.0,    0.0,    0.0,   -0.0,   -0.0,    0.0,    0.0,    0.0,    0.0,  999.0,   -3.4,   -4.0,   -5.9,   -5.6,   -5.4,   -5.4,   -5.8,   -5.7,   -6.8,   -5.3,   -6.7,   -7.1,   -6.3,   -5.2,   -4.3,   -3.8,   -3.9,   -3.8,   -3.7,   -3.6,   -3.6,   -3.4,   -3.3,   -3.2,   -3.2,   -3.1,   -3.0,   -2.9,   -2.9,   -2.9,   -2.8,   -2.8,   -2.7,   -2.7,   -2.7,   -2.6,   -2.5,   -2.4,   -2.3,   -2.1,   -2.0,   -1.9,   -1.8,   -1.7,   -1.5,   -1.6,   -1.6,   -1.6,   -1.5,   -1.4
2011/09/03 19:30,   -0.0,    0.0,   -0.0,   -0.1,   -0.2,   -0.6,   -0.7,   -0.8,   -1.0,   -1.0,   -0.7,   -0.9,   -1.2,   -1.0,   -0.6,   -0.3,   -0.1,   -0.1,   -0.1,   -0.0,   -0.0,   -0.0,    0.0,   -0.0,   -0.0,    0.0,    0.0,    0.0,   -0.0,    0.0,   -0.0,   -0.0,    0.0,   -0.1,  999.0,  999.0,  999.0,   -6.0,   -6.9,   -6.9,   -7.0,   -7.0,   -6.4,   -5.8,   -5.1,   -5.0,   -4.7,   -4.5,   -4.4,   -4.4,   -4.2,   -4.0,   -3.7,   -3.7,   -3.5,   -3.4,   -3.3,   -3.2,   -3.1,   -3.0,   -2.8,   -2.8,   -2.6,   -2.6,   -2.4,   -2.2,   -2.1,   -2.0,   -2.0,   -1.9,   -1.8,   -1.6,   -1.6,   -1.5,   -1.4,   -1.4,   -1.3,   -1.2,   -1.2,   -1.1
2011/09/03 19:40,  999.0,    0.0,   -0.0,   -0.1,   -0.2,  999.0,   -0.7,   -0.8,   -1.1,   -1.0,   -0.1,   -0.1,   -0.2,   -0.3,   -0.3,   -0.1,   -0.1,   -0.1,   -0.1,   -0.0,   -0.0,    0.0,    0.0,   -0.0,    0.0,    0.0,   -0.0,   -0.0,    0.0,    0.0,   -0.0,   -2.5,   -2.6,   -4.9,  999.0,   -9.3,   -8.0,   -8.7,   -9.2,   -8.7,   -8.0,   -7.1,   -6.0,   -5.3,   -4.9,   -4.8,   -4.6,   -4.5,   -4.3,   -4.1,   -3.9,   -3.7,   -3.6,   -3.4,   -3.3,   -3.2,   -3.1,   -3.0,   -2.8,   -2.6,   -2.5,   -2.3,   -2.2,   -2.1,   -2.0,   -1.9,   -1.8,   -1.7,   -1.6,   -1.3,   -1.3,   -1.1,   -1.0,   -0.9,   -0.9,   -0.8,   -0.9,   -0.8,   -0.7,   -0.7
2011/09/03 19:50,  999.0,    0.0,   -0.0,   -0.0,   -0.4,   -0.6,   -1.3,   -1.2,   -0.9,   -0.9,   -0.4,   -0.4,   -0.9,   -0.6,   -0.3,   -0.1,   -0.1,   -0.1,   -0.0,    0.0,    0.0,    0.0,   -0.0,   -0.0,   -0.0,   -0.0,   -0.0,  999.0,   -7.0,  999.0,  999.0,  999.0,  999.0,   -9.2,   -9.3,   -9.2,   -9.1,   -9.0,   -8.4,   -7.9,   -7.3,   -6.4,   -5.9,   -5.3,   -5.1,   -5.2,   -4.8,   -5.0,   -4.8,   -4.6,   -4.3,   -4.0,   -3.8,   -3.6,   -3.4,   -3.2,   -2.9,   -2.8,   -2.7,   -2.5,   -2.3,   -2.1,   -2.0,   -2.0,   -1.9,   -2.0,   -1.8,   -1.7,   -1.6,   -1.4,   -1.2,   -1.1,   -1.1,   -1.1,   -1.0,   -1.0,   -0.9,  999.0,  999.0,  999.0
2011/09/03 20:00,  999.0,   -0.0,    0.0,   -0.3,   -0.7,   -1.1,   -1.1,  999.0,   -0.8,   -0.8,   -0.6,   -0.7,   -1.3,   -1.1,   -0.5,   -0.2,   -0.2,   -0.1,   -0.1,   -0.0,   -0.0,   -0.0,    0.0,  999.0,  999.0,   -7.6,   -7.6,   -7.9,   -8.2,   -8.2,   -8.3,   -8.3,   -8.5,   -8.7,   -8.8,   -8.8,   -8.7,   -8.3,   -8.1,   -7.5,   -6.6,   -5.7,   -5.1,   -4.7,   -4.4,   -4.3,   -4.1,   -3.8,   -4.0,   -3.7,   -3.6,   -3.5,   -3.2,   -3.0,   -2.8,   -2.8,   -2.6,   -2.5,   -2.4,   -2.3,   -2.2,   -2.1,   -2.0,   -1.9,   -1.7,   -1.6,   -1.4,   -1.2,   -1.1,   -0.9,   -0.8,   -0.7,   -0.6,   -0.4,   -0.7,   -1.0,  999.0,   -0.6,   -0.6,   -0.5
2011/09/03 20:10,  999.0,   -0.0,   -1.7,  999.0,  999.0,  999.0,   -4.6,   -5.6,   -3.3,   -3.9,   -4.0,   -5.3,   -5.3,   -3.9,   -8.2,   -8.0,   -7.5,   -7.5,   -7.4,   -7.4,   -7.4,   -7.4,   -7.5,   -7.6,   -7.6,   -7.5,   -7.5,   -7.6,   -7.7,   -7.8,   -7.9,   -8.0,   -8.1,   -8.0,   -8.0,   -8.0,   -8.0,   -7.7,   -7.4,   -6.9,   -6.1,   -5.2,   -4.3,   -3.7,   -3.3,   -3.7,   -3.2,   -3.2,   -3.4,   -3.2,   -3.2,   -2.7,   -2.6,   -2.5,   -2.3,   -2.2,   -1.8,   -1.7,   -1.4,   -1.3,   -1.2,  999.0,   -1.7,   -1.2,   -1.2,   -1.4,   -1.3,   -1.1,   -1.4,   -1.2,   -1.1,   -1.1,   -0.9,   -0.9,   -0.8,   -0.6,   -0.3,   -0.5,   -0.3,   -0.2
2011/09/03 20:20,  999.0,  999.0,   -8.4,   -7.5,   -7.4,   -7.1,   -7.7,   -7.0,   -6.2,   -6.3,   -6.4,   -7.7,   -7.5,   -7.4,   -7.4,   -7.3,   -7.1,   -6.9,   -6.0,   -6.5,   -6.4,   -6.5,   -6.6,   -6.3,   -6.6,   -6.8,   -6.6,   -6.7,   -6.6,   -7.0,   -7.1,   -6.9,   -7.0,   -6.8,   -7.0,   -7.1,   -7.1,   -7.1,   -7.2,   -7.2,   -6.6,   -5.3,   -4.3,   -3.7,   -3.3,   -3.2,   -3.1,   -3.1,   -3.2,   -3.0,   -2.8,   -2.7,   -2.6,   -2.5,   -2.4,   -2.3,   -2.1,   -2.0,   -1.9,   -1.8,   -1.8,   -1.8,   -1.8,   -1.7,   -1.7,   -1.6,   -1.5,   -1.4,   -1.2,   -1.2,   -1.1,   -1.0,   -0.8,   -0.8,   -0.6,   -0.6,   -0.5,   -0.5,   -0.5,   -0.4
2011/09/03 20:30,  999.0,  999.0,   -7.4,   -7.0,   -6.7,   -6.8,   -6.8,   -6.6,   -6.9,   -6.5,   -6.7,   -6.9,   -6.8,   -6.8,   -6.9,   -6.8,   -6.7,   -6.7,   -6.7,   -6.7,   -6.5,   -6.5,   -6.5,   -6.6,   -6.3,   -6.4,   -6.5,   -6.5,   -6.5,   -6.2,   -6.2,   -6.4,   -6.4,   -6.6,   -6.6,   -6.5,   -6.5,   -6.5,   -6.1,   -6.5,   -6.1,   -4.7,   -4.1,   -3.5,   -3.0,   -2.9,   -2.8,   -2.7,   -2.7,   -2.7,   -2.6,   -2.6,   -2.5,   -2.5,   -2.4,   -2.4,   -2.2,   -2.1,   -2.2,   -2.2,   -2.1,   -2.0,   -1.9,   -1.8,   -1.7,   -1.7,   -1.6,   -1.6,   -1.6,   -1.5,   -1.5,   -1.5,   -1.4,   -1.4,   -1.3,   -1.3,   -1.3,   -1.3,   -1.2,   -1.1
2011/09/03 20:40,  999.0,  999.0,   -8.0,   -7.5,   -7.6,   -7.1,   -7.4,   -8.0,   -8.2,   -8.0,   -8.1,   -8.3,   -8.1,   -8.0,   -7.8,   -8.0,   -7.8,   -7.9,   -7.9,   -8.1,   -8.0,   -8.1,   -7.9,   -7.7,   -7.5,   -7.2,   -7.1,   -7.1,   -7.0,   -7.0,   -7.1,   -7.0,   -7.0,   -7.1,   -7.2,   -6.9,   -6.8,   -6.8,   -6.8,   -6.4,   -5.7,   -4.6,   -3.9,   -3.5,   -3.2,   -3.1,   -3.0,   -2.9,   -2.8,   -2.8,   -2.7,   -2.6,   -2.6,   -2.5,   -2.4,   -2.4,   -2.3,   -2.2,   -2.2,   -2.2,   -2.2,   -2.2,   -2.1,   -1.9,   -1.9,   -1.8,   -1.8,   -1.8,   -1.8,   -1.8,   -1.8,   -1.8,   -1.7,   -1.6,   -1.5,   -1.4,   -1.2,   -1.2,   -1.1,   -1.1
2011/09/03 20:50,  999.0,   -7.7,   -8.0,  999.0,   -7.3,   -7.7,   -7.8,   -8.0,   -7.8,   -7.6,   -7.4,   -7.4,   -7.4,   -7.3,   -7.3,   -7.4,   -7.6,   -7.5,   -7.5,   -7.4,   -7.4,   -7.3,   -7.1,   -7.0,   -6.8,   -6.8,   -6.8,   -6.9,   -6.9,   -6.8,   -7.6,   -7.4,   -7.8,   -7.6,   -7.6,   -8.4,   -8.3,   -8.2,  999.0,   -8.4,   -7.3,   -5.7,  999.0,   -3.8,   -3.5,   -3.5,   -3.2,   -3.3,   -3.2,   -2.9,   -3.2,   -3.1,   -2.9,   -2.9,   -2.8,   -2.8,   -2.6,   -2.5,   -2.3,   -2.2,   -2.1,   -2.3,   -2.3,   -2.3,   -2.3,   -2.2,   -2.1,   -1.9,   -1.9,   -1.9,   -1.9,   -1.8,   -1.8,   -1.7,   -1.7,   -1.8,   -1.8,   -1.8,   -1.7,   -1.6
2011/09/03 21:00,  999.0,   -1.7,   -3.5,   -2.4,   -1.8,   -0.2,   -2.0,   -0.7,   -4.0,   -3.3,   -3.6,   -7.5,   -8.3,   -7.9,  999.0,   -7.4,   -7.5,   -7.2,   -7.5,   -7.6,   -7.7,   -7.6,   -7.6,   -7.2,   -7.5,   -7.1,   -6.6,   -6.4,   -7.1,   -6.8,   -6.8,   -6.8,   -6.9,   -7.0,   -6.9,   -6.9,   -7.0,   -7.0,  999.0,  999.0,   -6.1,   -4.8,   -3.9,   -3.4,   -3.3,   -3.3,   -3.2,   -3.1,   -3.1,   -3.1,   -3.0,   -2.9,   -2.8,   -2.7,   -2.6,   -2.5,   -2.4,   -2.3,   -2.2,   -2.2,   -2.1,   -2.0,   -1.9,   -1.9,   -1.9,   -1.8,   -1.7,   -1.6,   -1.5,   -1.4,   -1.2,   -1.2,   -1.2,   -1.4,   -1.4,   -1.2,   -1.3,   -1.2,   -1.3,   -1.2
2011/09/03 21:10,  999.0,  999.0,   -8.1,  999.0,   -7.7,   -7.7,   -7.7,   -7.7,   -7.5,   -7.6,   -7.6,   -7.7,   -7.7,   -7.6,   -7.5,   -7.4,   -7.2,   -6.9,   -7.0,   -7.2,   -7.3,   -7.1,   -7.0,   -7.0,   -7.0,   -6.9,   -6.9,   -6.8,   -6.8,   -6.9,   -7.0,   -7.1,   -7.3,   -7.3,   -7.3,   -7.2,   -7.1,   -7.2,   -7.1,   -7.0,   -6.6,   -5.7,   -4.6,   -3.6,   -3.0,   -2.9,   -2.8,   -2.6,   -2.5,   -2.5,   -2.4,   -2.3,   -2.2,   -2.1,   -2.0,   -2.0,   -1.9,   -1.9,   -1.8,   -1.7,   -1.7,   -1.6,   -1.6,   -1.4,   -1.4,   -1.3,   -1.3,   -1.1,   -1.1,   -1.1,   -1.0,   -1.0,   -1.0,   -1.0,   -1.0,   -1.0,   -0.9,   -0.9,   -0.9,   -0.9
2011/09/03 21:20,   -8.0,   -7.6,   -8.0,   -7.7,   -7.7,   -8.1,   -8.1,   -8.1,   -8.3,   -8.3,   -8.4,   -8.4,   -8.1,   -7.8,   -7.8,   -7.6,   -7.8,   -7.6,   -7.4,   -7.0,   -6.7,   -6.7,   -6.2,   -6.6,   -6.3,   -6.2,   -6.7,   -6.4,   -6.6,   -6.6,   -6.5,   -6.4,   -6.3,   -6.3,   -6.1,   -6.0,   -6.8,   -6.6,   -7.0,   -6.7,   -6.0,   -5.0,   -4.2,   -3.6,   -3.2,   -3.0,   -2.9,   -3.0,   -2.9,   -2.6,   -2.5,   -2.5,   -2.5,   -2.5,   -2.4,   -2.4,   -2.3,   -2.3,   -2.3,   -2.2,   -2.0,   -2.0,   -1.8,   -1.8,   -1.7,   -1.7,   -1.6,   -1.6,   -1.5,   -1.5,   -1.4,   -1.3,   -1.2,   -1.2,   -1.1,   -1.0,   -0.9,   -0.8,   -0.9,   -0.8
2011/09/03 21:30,  999.0,   -8.1,   -8.8,   -8.4,   -9.0,   -9.1,   -8.7,   -8.5,   -8.4,   -8.2,   -7.9,   -7.7,   -7.5,   -7.2,   -7.1,   -6.9,   -6.8,   -6.6,   -6.6,   -6.6,   -6.6,   -6.5,   -6.5,   -6.4,   -6.4,   -6.4,   -6.4,   -6.4,   -6.4,   -6.5,   -6.4,   -6.5,   -6.6,   -6.9,   -7.0,   -6.8,   -7.0,   -6.8,   -7.4,   -6.9,   -5.7,   -4.8,   -4.2,   -3.4,   -3.0,   -2.9,   -2.8,   -2.7,   -2.5,   -2.5,   -2.4,   -2.4,   -2.4,   -2.4,   -2.4,   -2.4,   -2.3,   -2.5,   -2.4,   -2.4,   -2.4,   -2.3,   -2.3,   -2.2,   -2.1,   -2.0,   -1.8,   -1.7,   -1.6,   -1.5,   -1.3,   -1.4,   -1.3,   -1.3,   -1.2,   -1.3,   -1.2,   -1.1,   -1.0,   -1.0
2011/09/03 21:40,    0.0,   -3.2,   -0.0,  999.0,  999.0,  999.0,   -2.3,   -4.0,   -5.6,   -5.6,   -4.7,   -4.4,   -3.7,   -6.5,   -6.5,   -7.0,   -6.9,   -6.9,   -6.7,   -6.9,   -6.9,   -6.5,   -6.6,   -6.6,   -6.7,   -6.7,   -6.6,   -6.8,   -6.6,   -6.6,   -6.6,   -7.1,   -7.7,   -7.7,   -7.2,   -7.0,   -7.0,   -6.8,  999.0,   -6.5,   -5.8,   -4.6,   -4.0,   -3.3,   -2.9,   -2.8,   -2.6,   -2.6,   -2.4,   -2.3,   -2.2,   -2.2,   -2.0,   -1.9,   -1.7,   -1.7,   -1.8,   -1.8,   -1.9,   -2.0,   -2.0,   -1.9,   -1.9,   -1.8,   -1.7,   -1.6,   -1.4,   -1.4,   -1.2,   -1.2,   -1.2,   -1.2,   -1.1,   -1.1,   -1.1,   -1.0,   -0.9,   -0.9,   -0.8,   -0.8
2011/09/03 21:50,   -3.9,   -5.1,   -5.5,   -4.9,   -5.0,   -4.8,   -4.9,   -4.8,   -5.7,   -6.3,   -6.2,   -6.2,   -6.0,   -7.2,   -7.1,   -7.0,   -7.1,   -6.9,   -6.8,   -7.0,   -6.5,   -6.5,   -6.5,   -6.3,   -6.2,   -6.2,   -6.3,   -6.3,   -6.5,   -6.7,   -7.0,   -7.2,   -7.7,   -8.5,   -7.5,   -7.4,   -7.5,   -8.6,  999.0,  999.0,   -5.1,   -4.1,   -3.6,   -3.3,   -3.2,   -3.0,   -2.9,   -2.9,   -2.8,   -2.7,   -2.6,   -2.5,   -2.4,   -2.3,   -2.3,   -2.2,   -2.2,   -2.1,   -2.0,   -2.0,   -2.0,   -2.0,   -2.0,   -1.9,   -1.9,   -1.9,   -1.9,   -1.9,   -1.8,   -1.7,   -1.6,   -1.6,   -1.7,   -1.6,   -1.6,   -1.6,   -1.6,   -1.6,   -1.6,   -1.5
2011/09/03 22:00,   -7.2,   -7.8,   -7.6,   -7.0,   -7.4,   -7.4,   -7.2,   -7.3,   -7.1,   -7.1,   -7.0,   -7.0,   -6.9,   -6.7,   -6.6,   -6.5,   -6.6,   -6.5,   -6.5,   -6.5,   -6.6,   -6.6,   -6.8,   -7.0,   -7.1,   -7.0,   -6.9,   -7.3,   -7.0,   -7.5,   -7.8,   -7.8,   -8.0,   -8.0,   -8.3,   -7.8,   -8.5,   -8.6,   -7.8,   -7.7,   -6.7,   -5.2,   -4.0,   -3.1,   -3.0,   -2.8,   -2.6,   -2.6,   -2.5,   -2.5,   -2.4,   -2.3,   -2.2,   -2.1,   -2.1,   -2.0,   -2.0,   -1.9,   -1.9,   -1.9,   -1.9,   -1.8,   -1.7,   -1.7,   -1.6,   -1.5,   -1.6,   -1.5,   -1.5,   -1.5,   -1.4,   -1.4,   -1.3,   -1.3,   -1.3,   -1.4,   -1.4,   -1.3,   -1.3,   -1.4
2011/09/03 22:10,   -7.8,   -7.6,   -8.5,   -8.7,   -8.6,   -8.5,   -8.4,   -8.5,   -8.3,   -8.3,   -8.3,   -8.4,   -8.3,   -8.2,   -8.2,   -7.9,   -7.9,   -8.0,   -7.9,   -7.7,   -7.7,   -7.7,   -7.7,   -7.7,   -7.6,   -7.7,   -7.6,   -7.7,   -7.7,   -7.8,   -7.9,   -7.8,   -7.8,   -7.8,   -7.8,   -7.9,   -8.0,   -8.2,   -7.9,   -7.0,   -6.4,   -5.1,   -4.1,   -3.2,   -2.9,   -2.8,   -2.6,   -2.5,   -2.4,   -2.3,   -2.3,   -2.2,   -2.2,   -2.2,   -2.2,   -2.1,   -2.0,   -2.0,   -1.8,   -1.8,   -1.7,   -1.6,   -1.6,   -1.5,   -1.4,   -1.4,   -1.3,   -1.2,   -1.2,   -1.2,   -1.2,   -0.9,   -1.0,   -1.0,   -0.9,   -1.0,   -1.0,   -1.1,   -1.2,   -1.2
2011/09/03 22:20,   -8.6,   -8.6,   -8.8,   -8.7,   -8.4,   -8.5,   -8.7,   -8.6,   -8.6,   -8.6,   -8.3,   -8.3,   -8.1,   -8.1,   -7.9,   -7.9,   -7.8,   -7.7,   -7.6,   -7.5,   -7.5,   -7.5,   -7.4,   -7.5,   -7.6,   -7.6,   -7.8,   -8.0,   -8.1,   -8.3,   -8.5,   -8.6,   -9.1,   -9.1,   -8.7,   -9.2,   -9.1,   -9.0,   -8.8,   -8.5,   -7.0,   -5.2,   -4.1,   -3.5,   -3.1,   -3.0,   -2.8,   -2.7,   -2.6,   -2.5,   -2.4,   -2.3,   -2.3,   -2.2,   -2.1,   -2.1,   -2.1,   -2.0,   -2.0,   -2.0,   -1.9,   -1.9,   -1.8,   -1.7,   -1.7,   -1.7,   -1.7,   -1.5,   -1.5,   -1.4,   -1.4,   -1.3,   -1.4,   -1.3,   -1.1,   -1.1,   -1.0,   -1.1,   -1.3,   -1.4
2011/09/03 22:30,   -8.3,   -8.0,   -8.4,   -8.3,   -8.2,   -8.3,   -8.2,   -8.2,   -8.1,   -7.9,   -7.7,   -7.6,   -7.5,   -7.5,   -7.5,   -7.4,   -7.4,   -7.4,   -7.4,   -7.4,   -7.4,   -7.5,   -7.6,   -7.6,   -7.7,   -7.8,   -8.0,   -8.4,   -8.5,   -8.8,   -8.9,   -9.1,   -9.4,   -9.5,   -9.5,   -9.4,   -9.4,   -9.4,   -8.9,   -7.7,   -6.2,   -4.8,   -4.1,   -3.6,   -3.4,   -3.2,   -3.1,   -3.0,   -2.9,   -2.8,   -2.7,   -2.7,   -2.6,   -2.5,   -2.4,   -2.4,   -2.4,   -2.4,   -2.3,   -2.2,   -2.1,   -2.1,   -2.0,   -1.9,   -1.8,   -1.8,   -1.7,   -1.7,   -1.6,   -1.5,   -1.4,   -1.3,   -1.3,   -1.2,   -1.1,   -1.0,   -1.0,   -1.0,   -0.9,   -0.9
2011/09/03 22:40,   -7.4,   -7.3,   -7.6,   -7.5,   -7.7,   -7.6,   -7.7,   -7.4,   -7.4,   -7.7,   -7.3,   -7.3,   -7.6,   -7.4,   -7.4,   -7.4,   -7.4,   -7.4,   -7.5,   -7.6,   -7.6,   -7.8,   -7.9,   -8.1,   -8.3,   -8.5,   -8.8,   -9.1,   -9.2,   -9.2,   -9.3,   -9.1,   -9.6,   -9.7,   -9.7,   -9.6,   -9.8,   -9.5,   -8.9,   -7.7,   -5.9,   -4.9,   -4.1,   -3.7,   -3.4,   -3.2,   -3.1,   -2.9,   -2.7,   -2.6,   -2.5,   -2.5,   -2.4,   -2.3,   -2.2,   -2.1,   -2.0,   -2.0,   -1.9,   -1.9,   -1.8,   -1.8,   -1.6,   -1.5,   -1.5,   -1.4,   -1.4,   -1.3,   -1.2,   -1.1,   -1.1,   -1.1,   -1.1,   -1.1,   -1.1,   -1.1,   -1.1,   -1.0,   -0.9,   -1.0
2011/09/03 22:50,   -7.0,   -6.9,   -7.1,   -7.0,   -7.0,   -7.2,   -7.1,   -7.1,   -7.1,   -7.1,   -7.0,   -7.0,   -7.1,   -7.2,   -7.2,   -7.3,   -7.4,   -7.5,   -7.5,   -7.6,   -7.7,   -7.7,   -7.8,   -8.1,   -8.3,   -8.3,   -8.8,   -9.0,   -9.3,   -9.0,   -9.5,  999.0,   -9.6,   -9.7,  999.0,   -9.5,   -9.7,   -9.3,   -8.4,   -6.9,   -5.0,   -4.2,   -3.7,   -3.4,   -3.3,   -3.1,   -2.9,   -2.8,   -2.7,   -2.7,   -2.6,   -2.5,   -2.4,   -2.2,   -2.3,   -2.2,   -2.2,   -2.1,   -2.1,   -2.0,   -2.0,   -1.9,   -1.9,   -1.8,   -1.8,   -1.8,   -1.8,   -1.8,   -1.8,   -1.7,   -1.7,   -1.6,   -1.5,   -1.5,   -1.2,   -1.2,   -1.1,   -1.0,   -1.0,   -0.9
2011/09/03 23:00,   -7.1,   -7.2,   -7.2,   -6.9,   -6.8,   -6.8,   -6.8,   -6.8,   -6.8,   -6.8,   -6.8,   -6.8,   -6.7,   -6.7,   -6.7,   -6.7,   -6.8,   -6.9,   -7.0,   -7.1,   -7.0,   -7.4,   -7.6,   -7.8,   -7.9,   -7.9,   -8.4,   -8.6,   -8.7,   -8.9,   -9.0,   -9.1,   -9.4,   -9.4,   -9.7,   -9.6,   -9.5,   -9.4,   -8.5,   -7.3,   -5.9,   -4.7,   -3.9,   -3.2,   -2.9,   -2.6,   -2.7,   -2.3,   -2.5,   -2.4,   -2.3,   -2.2,   -2.0,   -2.0,   -1.8,   -1.8,   -1.7,   -1.7,   -1.7,   -1.7,   -1.7,   -1.6,   -1.6,   -1.5,   -1.5,   -1.4,   -1.4,   -1.3,   -1.3,   -1.3,   -1.2,   -1.1,   -1.1,   -1.1,   -1.1,   -1.0,   -1.0,   -1.0,   -0.9,   -0.9
2011/09/03 23:10,   -7.1,   -7.0,   -7.3,   -7.2,   -7.2,   -7.0,   -6.9,   -7.0,   -7.2,   -7.2,   -7.1,   -7.1,   -7.1,   -7.0,   -7.0,   -7.0,   -6.9,   -6.8,   -6.8,   -6.9,   -6.9,   -7.0,   -7.1,   -7.1,   -7.1,   -7.5,   -7.7,   -7.9,   -8.4,   -8.8,   -9.0,   -9.6,   -9.4,   -9.5,   -9.6,   -9.3,   -9.4,   -9.2,   -8.5,   -7.3,   -6.0,  999.0,   -3.6,   -3.4,   -3.2,   -3.0,   -2.8,   -2.7,   -2.6,   -2.4,   -2.3,   -2.2,   -2.1,   -2.1,   -2.1,   -2.0,   -1.9,   -1.9,   -1.8,   -1.8,   -1.7,   -1.7,   -1.6,   -1.6,   -1.6,   -1.6,   -1.6,   -1.5,   -1.5,   -1.6,   -1.6,   -1.7,   -1.6,   -1.6,   -1.7,   -1.6,   -1.5,   -1.5,   -1.5,   -1.4
2011/09/03 23:20,   -7.6,   -6.7,   -7.1,   -7.1,   -7.6,   -7.5,   -7.3,   -7.3,   -7.2,   -7.3,   -7.0,   -6.9,   -7.0,   -6.9,   -7.0,   -7.0,   -7.0,   -6.9,   -6.8,   -6.9,   -7.0,   -7.1,   -7.1,   -7.1,   -7.3,   -7.5,   -7.6,   -7.8,   -8.2,   -8.7,   -8.8,   -9.1,   -9.3,   -9.3,   -9.4,   -9.7,   -9.7,   -9.4,   -9.1,   -8.3,   -7.1,  999.0,  999.0,   -3.8,   -3.4,   -3.1,   -3.0,   -2.8,   -2.8,   -2.7,   -2.6,   -2.6,   -2.5,   -2.4,   -2.3,   -2.3,   -2.2,   -2.1,   -2.1,   -2.1,   -2.0,   -2.1,   -2.0,   -2.0,   -1.9,   -1.8,   -1.7,   -1.6,   -1.6,   -1.5,   -1.4,   -1.3,   -1.3,   -1.3,   -1.2,   -1.2,   -1.2,   -1.2,   -1.1,   -1.2
2011/09/03 23:30,   -8.0,   -7.7,   -7.9,   -7.5,   -7.5,   -7.6,   -7.5,   -7.4,   -7.4,   -7.4,   -7.4,   -7.5,   -7.5,   -7.5,   -7.5,   -7.7,   -7.7,   -7.7,   -7.7,   -7.8,   -7.8,   -8.0,   -8.2,   -8.2,   -8.5,   -8.9,   -9.0,   -9.2,   -9.3,   -9.3,   -9.0,   -9.4,   -9.4,   -9.5,   -9.4,   -9.6,   -9.6,   -9.7,   -9.3,   -8.4,   -7.2,   -5.4,   -4.4,   -3.6,   -3.0,   -2.9,   -2.8,   -2.6,   -2.5,   -2.4,   -2.4,   -2.3,   -2.2,   -2.2,   -2.1,   -2.1,   -2.1,   -2.1,   -2.1,   -2.0,   -2.0,   -2.0,   -1.9,   -1.9,   -2.0,   -1.9,   -1.8,   -1.8,   -1.7,   -1.7,   -1.6,   -1.5,   -1.5,   -1.4,   -1.4,   -1.3,   -1.3,   -1.2,   -1.1,   -1.1
2011/09/03 23:40,   -7.3,   -7.3,   -7.4,   -7.4,   -7.0,   -7.5,   -7.3,   -7.3,   -7.1,   -6.9,   -7.1,   -7.1,   -7.0,   -7.0,   -7.2,   -7.2,   -7.2,   -7.3,   -7.3,   -7.6,   -7.6,   -7.7,   -7.7,   -8.1,   -8.1,   -8.5,   -8.8,   -8.9,   -9.1,   -9.5,   -9.5,   -9.7,   -9.9,   -9.9,   -9.7,   -9.7,   -9.8,   -9.6,   -9.0,   -7.7,   -6.0,  999.0,   -3.7,   -3.0,   -2.6,   -2.3,   -2.1,   -2.0,   -1.8,   -1.8,   -1.8,   -1.8,   -1.8,   -1.7,   -1.7,   -1.7,   -1.6,   -1.6,   -1.5,   -1.5,   -1.4,   -1.4,   -1.4,   -1.5,   -1.5,   -1.4,   -1.3,   -1.2,   -1.0,   -1.1,   -1.1,   -0.9,   -0.9,   -0.9,   -0.8,   -0.6,   -0.7,   -0.8,   -0.8,   -0.7
2011/09/03 23:50,   -7.0,   -7.3,   -7.4,   -7.4,   -7.6,   -7.4,   -7.5,   -7.4,   -7.2,   -7.2,   -7.2,   -7.3,   -7.1,   -7.2,   -7.2,   -7.2,   -7.2,   -7.2,   -7.3,   -7.4,   -7.5,   -7.6,   -7.8,   -8.0,   -8.4,   -8.8,   -9.1,   -9.0,   -9.2,   -9.4,   -9.4,   -9.7,   -9.8,   -9.7,   -9.7,   -9.5,   -9.6,   -9.3,   -8.3,   -7.0,   -5.9,   -4.6,   -3.8,   -3.3,   -2.9,   -2.8,   -2.6,   -2.5,   -2.4,   -2.2,   -2.2,   -2.1,   -2.1,   -2.0,   -1.9,   -1.8,   -1.8,   -1.7,   -1.6,   -1.6,   -1.5,   -1.5,   -1.4,   -1.3,   -1.2,   -1.2,   -1.1,   -1.0,   -0.9,   -0.9,   -0.7,   -0.7,   -0.7,   -0.6,   -0.6,   -0.5,   -0.5,   -0.5,   -0.5,   -0.5
